CFG226 EDDF-MDPC

Flight info

Callsign CFG226
Flight time 9h 44m
Altitude 32000
Route SOBRA2L SOBRA Y180 DIK UN857 TOLVU/N0467F330 DCT RAPOR DCT GIMER DCT ESTOC DCT PON DCT DITAL DCT GODIX DCT DIDAK DCT KURIS DCT TERPO DCT ERIGA DCT AZFIC DCT LOTEE DCT PETEK DCT BANAL/M081F340 DCT 40N020W 36N030W 33N040W/M081F360 30N050W 27N057W DCT FIVZE M597 KEEKA/N0470F360 DCT PLING DCT KATOK W12 PNA
Aircraft A339/H-SDE3GHIJ2J3J5M1RVWXY/LB2D1

Departure

Time 2026-04-16 11:48
Airport Frankfurt Main Airport (EDDF)

Arrival

Time 2026-04-16 21:33
Airport Punta Cana International Airport (MDPC)
Time Latitude Longitude Altitude Speed Heading
2026-04-16 10:36 50.04710 8.57286 368 ft 0 kts 276°
2026-04-16 11:34 50.04710 8.57291 368 ft 2 kts 276°
2026-04-16 11:34 50.04712 8.57323 395 ft 2 kts 347°
2026-04-16 11:34 50.04700 8.57325 392 ft 3 kts 292°
2026-04-16 11:34 50.04698 8.57332 393 ft 1 kts 292°
2026-04-16 11:35 50.04692 8.57355 367 ft 0 kts 292°
2026-04-16 11:36 50.04691 8.57362 368 ft 3 kts 297°
2026-04-16 11:36 50.04681 8.57389 372 ft 3 kts 322°
2026-04-16 11:36 50.04664 8.57406 370 ft 3 kts 347°
2026-04-16 11:37 50.04645 8.57411 371 ft 3 kts 12°
2026-04-16 11:37 50.04618 8.57401 371 ft 4 kts 22°
2026-04-16 11:37 50.04595 8.57385 375 ft 4 kts 38°
2026-04-16 11:37 50.04580 8.57366 373 ft 2 kts 59°
2026-04-16 11:38 50.04575 8.57355 371 ft 2 kts 199°
2026-04-16 11:38 50.04577 8.57356 372 ft 0 kts 198°
2026-04-16 11:38 50.04585 8.57363 373 ft 1 kts 167°
2026-04-16 11:38 50.04592 8.57363 372 ft 2 kts 140°
2026-04-16 11:39 50.04597 8.57359 371 ft 0 kts 122°
2026-04-16 11:43 50.04594 8.57378 378 ft 5 kts 110°
2026-04-16 11:43 50.04601 8.57454 375 ft 9 kts 73°
2026-04-16 11:43 50.04624 8.57552 373 ft 11 kts 69°
2026-04-16 11:44 50.04656 8.57686 377 ft 15 kts 70°
2026-04-16 11:44 50.04692 8.57838 377 ft 9 kts 69°
2026-04-16 11:44 50.04706 8.57906 377 ft 6 kts 79°
2026-04-16 11:44 50.04696 8.57954 378 ft 3 kts 119°
2026-04-16 11:45 50.04684 8.57967 378 ft 2 kts 141°
2026-04-16 11:45 50.04657 8.57989 379 ft 9 kts 155°
2026-04-16 11:45 50.04595 8.58028 378 ft 10 kts 154°
2026-04-16 11:45 50.04574 8.58152 377 ft 15 kts 77°
2026-04-16 11:46 50.04610 8.58304 378 ft 14 kts 70°
2026-04-16 11:46 50.04644 8.58445 378 ft 15 kts 69°
2026-04-16 11:46 50.04620 8.58579 377 ft 14 kts 154°
2026-04-16 11:46 50.04535 8.58607 377 ft 11 kts 158°
2026-04-16 11:47 50.04497 8.58608 378 ft 3 kts 205°
2026-04-16 11:47 50.04486 8.58574 378 ft 6 kts 243°
2026-04-16 11:47 50.04460 8.58469 376 ft 27 kts 249°
2026-04-16 11:47 50.04306 8.57826 374 ft 99 kts 250°
2026-04-16 11:48 50.03993 8.56516 367 ft 157 kts 249°
2026-04-16 11:48 50.03568 8.54708 472 ft 190 kts 248°
2026-04-16 11:48 50.03103 8.52794 1149 ft 191 kts 248°
2026-04-16 11:48 50.02394 8.51007 1778 ft 198 kts 226°
2026-04-16 11:49 50.01307 8.49706 2399 ft 200 kts 210°
2026-04-16 11:49 49.99992 8.48881 2804 ft 211 kts 198°
2026-04-16 11:49 49.98530 8.48203 3119 ft 225 kts 197°
2026-04-16 11:49 49.97017 8.47482 3656 ft 228 kts 198°
2026-04-16 11:50 49.95508 8.46715 4243 ft 230 kts 200°
2026-04-16 11:50 49.93994 8.45889 4838 ft 231 kts 203°
2026-04-16 11:50 49.92602 8.44656 5361 ft 231 kts 219°
2026-04-16 11:50 49.91434 8.42927 5803 ft 236 kts 227°
2026-04-16 11:51 49.90543 8.40707 5969 ft 252 kts 253°
2026-04-16 11:51 49.90212 8.37967 6210 ft 264 kts 265°
2026-04-16 11:51 49.90083 8.35118 6753 ft 266 kts 267°
2026-04-16 11:51 49.89973 8.32248 7284 ft 268 kts 266°
2026-04-16 11:52 49.89832 8.29400 7814 ft 270 kts 265°
2026-04-16 11:52 49.89656 8.26500 8360 ft 271 kts 264°
2026-04-16 11:52 49.89458 8.23580 8896 ft 273 kts 264°
2026-04-16 11:52 49.89248 8.20642 9444 ft 275 kts 264°
2026-04-16 11:53 49.89033 8.17676 10023 ft 277 kts 263°
2026-04-16 11:53 49.88816 8.14691 10451 ft 283 kts 263°
2026-04-16 11:53 49.88588 8.11565 10595 ft 300 kts 264°
2026-04-16 11:53 49.88349 8.08261 10733 ft 315 kts 264°
2026-04-16 11:54 49.88102 8.04823 10969 ft 326 kts 264°
2026-04-16 11:54 49.87847 8.01315 11466 ft 328 kts 264°
2026-04-16 11:54 49.87591 7.97798 11975 ft 329 kts 264°
2026-04-16 11:54 49.87331 7.94257 12480 ft 331 kts 264°
2026-04-16 11:55 49.87072 7.90741 12984 ft 333 kts 264°
2026-04-16 11:55 49.86808 7.87178 13498 ft 334 kts 264°
2026-04-16 11:55 49.86542 7.83587 14011 ft 336 kts 264°
2026-04-16 11:55 49.86319 7.79981 14436 ft 338 kts 268°
2026-04-16 11:56 49.86398 7.76333 14894 ft 338 kts 276°
2026-04-16 11:56 49.86811 7.72732 15318 ft 341 kts 284°
2026-04-16 11:56 49.87405 7.69168 15727 ft 343 kts 284°
2026-04-16 11:56 49.87978 7.65573 16164 ft 344 kts 283°
2026-04-16 11:57 49.88540 7.61958 16599 ft 346 kts 283°
2026-04-16 11:57 49.89100 7.58317 17036 ft 348 kts 283°
2026-04-16 11:57 49.89659 7.54666 17447 ft 350 kts 283°
2026-04-16 11:57 49.90217 7.51026 17862 ft 352 kts 283°
2026-04-16 11:58 49.90785 7.47318 18292 ft 354 kts 283°
2026-04-16 11:58 49.91361 7.43552 18714 ft 355 kts 283°
2026-04-16 11:58 49.91931 7.39813 19105 ft 357 kts 283°
2026-04-16 11:58 49.92494 7.36115 19471 ft 358 kts 283°
2026-04-16 11:59 49.93066 7.32350 19874 ft 359 kts 283°
2026-04-16 11:59 49.93635 7.28589 20271 ft 360 kts 283°
2026-04-16 11:59 49.94125 7.25350 20590 ft 361 kts 283°
2026-04-16 11:59 49.94184 7.24959 20637 ft 362 kts 283°
2026-04-16 12:00 49.94471 7.23056 20830 ft 362 kts 283°
2026-04-16 12:00 49.95043 7.19249 21253 ft 363 kts 283°
2026-04-16 12:00 49.95619 7.15416 21631 ft 365 kts 283°
2026-04-16 12:00 49.96195 7.11575 22024 ft 367 kts 283°
2026-04-16 12:01 49.96773 7.07702 22429 ft 368 kts 283°
2026-04-16 12:01 49.97353 7.03816 22801 ft 371 kts 282°
2026-04-16 12:01 49.97929 6.99936 23185 ft 372 kts 283°
2026-04-16 12:02 49.99018 6.92029 23918 ft 376 kts 278°
2026-04-16 12:02 49.99233 6.87968 24247 ft 378 kts 272°
2026-04-16 12:02 49.99159 6.83880 24570 ft 380 kts 267°
2026-04-16 12:02 49.99013 6.79772 24898 ft 381 kts 268°
2026-04-16 12:03 49.98885 6.75646 25244 ft 383 kts 268°
2026-04-16 12:03 49.98762 6.71497 25580 ft 385 kts 268°
2026-04-16 12:03 49.98638 6.67327 25906 ft 386 kts 268°
2026-04-16 12:03 49.98511 6.63145 26234 ft 388 kts 268°
2026-04-16 12:04 49.98269 6.58962 26546 ft 390 kts 263°
2026-04-16 12:04 49.97705 6.54837 26867 ft 393 kts 256°
2026-04-16 12:04 49.96823 6.50792 27160 ft 397 kts 250°
2026-04-16 12:04 49.95701 6.46862 27488 ft 398 kts 248°
2026-04-16 12:05 49.94593 6.42969 27772 ft 400 kts 249°
2026-04-16 12:05 49.93467 6.38968 28092 ft 401 kts 249°
2026-04-16 12:05 49.92349 6.34978 28378 ft 403 kts 249°
2026-04-16 12:05 49.91244 6.31045 28670 ft 404 kts 249°
2026-04-16 12:06 49.90118 6.27042 28959 ft 406 kts 249°
2026-04-16 12:06 49.88948 6.23054 29251 ft 407 kts 248°
2026-04-16 12:06 49.87782 6.19037 29512 ft 409 kts 249°
2026-04-16 12:06 49.86628 6.15000 29779 ft 411 kts 247°
2026-04-16 12:07 49.85240 6.11097 30041 ft 415 kts 241°
2026-04-16 12:07 49.83591 6.07405 30302 ft 418 kts 238°
2026-04-16 12:07 49.81887 6.03737 30534 ft 420 kts 238°
2026-04-16 12:07 49.80188 6.00054 30770 ft 421 kts 238°
2026-04-16 12:08 49.78478 5.96342 31011 ft 423 kts 238°
2026-04-16 12:08 49.76766 5.92626 31232 ft 425 kts 238°
2026-04-16 12:08 49.75109 5.88828 31442 ft 424 kts 243°
2026-04-16 12:08 49.73744 5.84866 31663 ft 423 kts 249°
2026-04-16 12:09 49.72645 5.80654 31888 ft 422 kts 255°
2026-04-16 12:09 49.71684 5.76373 32117 ft 423 kts 254°
2026-04-16 12:09 49.70700 5.72066 32223 ft 426 kts 254°
2026-04-16 12:09 49.69698 5.67730 32242 ft 431 kts 254°
2026-04-16 12:10 49.67646 5.58935 32244 ft 438 kts 254°
2026-04-16 12:10 49.65569 5.50093 32245 ft 438 kts 254°
2026-04-16 12:11 49.63485 5.41249 32241 ft 438 kts 254°
2026-04-16 12:11 49.61443 5.32413 32243 ft 437 kts 255°
2026-04-16 12:12 49.59570 5.23490 32244 ft 437 kts 256°
2026-04-16 12:12 49.57825 5.14542 32237 ft 435 kts 259°
2026-04-16 12:13 49.56304 5.05525 32240 ft 435 kts 259°
2026-04-16 12:13 49.54769 4.96729 32247 ft 421 kts 258°
2026-04-16 12:14 49.53217 4.88019 32243 ft 424 kts 258°
2026-04-16 12:14 49.51644 4.79274 32243 ft 423 kts 258°
2026-04-16 12:15 49.50068 4.70555 32241 ft 423 kts 258°
2026-04-16 12:15 49.48482 4.61822 32238 ft 423 kts 258°
2026-04-16 12:16 49.46893 4.53113 32246 ft 423 kts 258°
2026-04-16 12:16 49.45296 4.44399 32247 ft 423 kts 258°
2026-04-16 12:17 49.43691 4.35684 32254 ft 423 kts 258°
2026-04-16 12:17 49.42090 4.27029 32252 ft 423 kts 258°
2026-04-16 12:18 49.40474 4.18334 32256 ft 424 kts 258°
2026-04-16 12:18 49.38847 4.09628 32258 ft 423 kts 258°
2026-04-16 12:19 49.37216 4.00934 32255 ft 424 kts 258°
2026-04-16 12:19 49.35683 3.92223 32254 ft 422 kts 261°
2026-04-16 12:20 49.34501 3.83418 32251 ft 421 kts 262°
2026-04-16 12:20 49.33292 3.74630 32249 ft 422 kts 261°
2026-04-16 12:21 49.32033 3.65849 32243 ft 421 kts 261°
2026-04-16 12:21 49.30765 3.57135 32244 ft 422 kts 261°
2026-04-16 12:22 49.29482 3.48354 32242 ft 422 kts 261°
2026-04-16 12:22 49.28194 3.39588 32244 ft 421 kts 261°
2026-04-16 12:23 49.26900 3.30835 32245 ft 421 kts 261°
2026-04-16 12:23 49.25605 3.22122 32248 ft 421 kts 261°
2026-04-16 12:24 49.24299 3.13378 32246 ft 421 kts 260°
2026-04-16 12:24 49.22987 3.04643 32248 ft 421 kts 260°
2026-04-16 12:25 49.21882 2.97331 32251 ft 421 kts 260°
2026-04-16 12:25 49.20556 2.88591 32252 ft 421 kts 260°
2026-04-16 12:26 49.19309 2.80417 32269 ft 421 kts 260°
2026-04-16 12:26 49.17971 2.71695 32269 ft 421 kts 260°
2026-04-16 12:27 49.16628 2.62984 32271 ft 421 kts 259°
2026-04-16 12:27 49.15277 2.54273 32250 ft 421 kts 259°
2026-04-16 12:28 49.13920 2.45566 32253 ft 421 kts 259°
2026-04-16 12:28 49.12683 2.36852 32273 ft 419 kts 264°
2026-04-16 12:29 49.11898 2.28072 32261 ft 419 kts 264°
2026-04-16 12:29 49.11089 2.19251 32259 ft 419 kts 264°
2026-04-16 12:30 49.10264 2.10448 32259 ft 419 kts 264°
2026-04-16 12:30 49.08943 2.01755 32269 ft 423 kts 254°
2026-04-16 12:31 49.06602 1.93537 32270 ft 425 kts 249°
2026-04-16 12:31 49.04125 1.85347 32265 ft 425 kts 249°
2026-04-16 12:32 49.01656 1.77159 32262 ft 425 kts 249°
2026-04-16 12:32 48.99180 1.68982 32259 ft 425 kts 249°
2026-04-16 12:33 48.96695 1.60810 32257 ft 425 kts 248°
2026-04-16 12:33 48.94206 1.52652 32260 ft 425 kts 248°
2026-04-16 12:34 48.91709 1.44495 32260 ft 425 kts 248°
2026-04-16 12:34 48.89209 1.36354 32261 ft 425 kts 248°
2026-04-16 12:35 48.86703 1.28220 32259 ft 425 kts 248°
2026-04-16 12:35 48.84194 1.20104 32265 ft 425 kts 248°
2026-04-16 12:36 48.81676 1.11987 32259 ft 425 kts 248°
2026-04-16 12:36 48.79173 1.03944 32260 ft 424 kts 248°
2026-04-16 12:37 48.76630 0.95799 32261 ft 424 kts 248°
2026-04-16 12:37 48.74023 0.87770 32261 ft 426 kts 243°
2026-04-16 12:38 48.70933 0.80158 32257 ft 427 kts 242°
2026-04-16 12:38 48.67829 0.72501 32261 ft 427 kts 242°
2026-04-16 12:39 48.64720 0.64837 32257 ft 427 kts 242°
2026-04-16 12:39 48.61605 0.57190 32255 ft 427 kts 242°
2026-04-16 12:40 48.58481 0.49544 32259 ft 427 kts 241°
2026-04-16 12:40 48.55356 0.41917 32258 ft 427 kts 241°
2026-04-16 12:41 48.52225 0.34297 32265 ft 427 kts 241°
2026-04-16 12:41 48.49088 0.26683 32258 ft 427 kts 241°
2026-04-16 12:42 48.45943 0.19071 32255 ft 427 kts 241°
2026-04-16 12:42 48.42813 0.11520 32258 ft 427 kts 241°
2026-04-16 12:43 48.39661 0.03935 32255 ft 427 kts 241°
2026-04-16 12:43 48.36499 -0.03640 32255 ft 427 kts 240°
2026-04-16 12:44 48.32972 -0.10882 32261 ft 429 kts 236°
2026-04-16 12:44 48.29404 -0.18075 32257 ft 429 kts 236°
2026-04-16 12:45 48.25840 -0.25259 32263 ft 429 kts 236°
2026-04-16 12:45 48.22250 -0.32342 32253 ft 429 kts 236°
2026-04-16 12:46 48.18609 -0.39441 32249 ft 429 kts 235°
2026-04-16 12:46 48.14972 -0.46536 32246 ft 429 kts 235°
2026-04-16 12:47 48.11331 -0.53627 32244 ft 429 kts 235°
2026-04-16 12:47 48.07682 -0.60718 32237 ft 429 kts 235°
2026-04-16 12:48 48.04033 -0.67788 32237 ft 429 kts 235°
2026-04-16 12:48 48.00406 -0.74797 32239 ft 429 kts 235°
2026-04-16 12:49 47.96751 -0.81843 32237 ft 429 kts 235°
2026-04-16 12:49 47.93088 -0.88888 32229 ft 429 kts 235°
2026-04-16 12:50 47.89424 -0.95913 32232 ft 428 kts 234°
2026-04-16 12:50 47.85761 -1.02920 32258 ft 429 kts 234°
2026-04-16 12:51 47.82088 -1.09928 32261 ft 429 kts 234°
2026-04-16 12:51 47.78437 -1.16875 32259 ft 429 kts 234°
2026-04-16 12:52 47.74757 -1.23861 32234 ft 429 kts 234°
2026-04-16 12:52 47.71068 -1.30845 32231 ft 429 kts 234°
2026-04-16 12:53 47.67380 -1.37808 32241 ft 429 kts 234°
2026-04-16 12:53 47.63696 -1.44748 32243 ft 429 kts 234°
2026-04-16 12:54 47.59992 -1.51684 32240 ft 430 kts 232°
2026-04-16 12:54 47.55984 -1.58314 32241 ft 431 kts 230°
2026-04-16 12:55 47.51978 -1.64915 32243 ft 431 kts 230°
2026-04-16 12:55 47.47972 -1.71504 32245 ft 431 kts 230°
2026-04-16 12:56 47.43982 -1.78042 32249 ft 431 kts 230°
2026-04-16 12:56 47.39961 -1.84615 32252 ft 430 kts 230°
2026-04-16 12:57 47.35863 -1.91068 32259 ft 432 kts 225°
2026-04-16 12:57 47.31039 -1.96418 32264 ft 437 kts 214°
2026-04-16 12:58 47.25820 -2.01014 32265 ft 437 kts 214°
2026-04-16 12:58 47.20617 -2.05650 32262 ft 437 kts 214°
2026-04-16 12:59 47.15458 -2.10251 32262 ft 436 kts 214°
2026-04-16 13:00 47.07658 -2.17182 32257 ft 436 kts 214°
2026-04-16 13:00 47.02469 -2.21779 32266 ft 436 kts 214°
2026-04-16 13:01 46.97270 -2.26374 32258 ft 436 kts 214°
2026-04-16 13:01 46.92077 -2.30954 32256 ft 436 kts 214°
2026-04-16 13:02 46.87120 -2.35972 32260 ft 432 kts 225°
2026-04-16 13:02 46.83394 -2.42754 32264 ft 427 kts 241°
2026-04-16 13:03 46.80480 -2.50309 32268 ft 427 kts 241°
2026-04-16 13:03 46.77520 -2.57824 32269 ft 427 kts 241°
2026-04-16 13:04 46.74565 -2.65274 32258 ft 427 kts 240°
2026-04-16 13:04 46.71587 -2.72762 32259 ft 426 kts 240°
2026-04-16 13:05 46.68610 -2.80230 32261 ft 427 kts 240°
2026-04-16 13:05 46.65625 -2.87700 32271 ft 426 kts 240°
2026-04-16 13:06 46.62631 -2.95170 32274 ft 426 kts 240°
2026-04-16 13:06 46.59642 -3.02609 32258 ft 426 kts 240°
2026-04-16 13:07 46.56459 -3.09826 32251 ft 427 kts 233°
2026-04-16 13:07 46.52441 -3.16194 32261 ft 428 kts 227°
2026-04-16 13:08 46.48289 -3.22405 32261 ft 428 kts 227°
2026-04-16 13:08 46.44161 -3.28616 32263 ft 428 kts 227°
2026-04-16 13:09 46.40718 -3.33785 32258 ft 428 kts 227°
2026-04-16 13:09 46.36577 -3.39984 32258 ft 428 kts 227°
2026-04-16 13:10 46.32428 -3.46178 32256 ft 428 kts 227°
2026-04-16 13:10 46.28283 -3.52351 32256 ft 428 kts 227°
2026-04-16 13:11 46.24131 -3.58521 32258 ft 428 kts 227°
2026-04-16 13:11 46.19978 -3.64679 32258 ft 428 kts 227°
2026-04-16 13:12 46.15820 -3.70830 32255 ft 428 kts 227°
2026-04-16 13:12 46.11684 -3.76934 32258 ft 428 kts 227°
2026-04-16 13:13 46.07492 -3.83106 32258 ft 428 kts 227°
2026-04-16 13:13 46.03350 -3.89191 32252 ft 428 kts 227°
2026-04-16 13:14 45.99174 -3.95312 32251 ft 427 kts 227°
2026-04-16 13:14 45.94998 -4.01419 32252 ft 428 kts 227°
2026-04-16 13:15 45.90847 -4.07475 32250 ft 428 kts 227°
2026-04-16 13:15 45.86665 -4.13562 32252 ft 428 kts 227°
2026-04-16 13:16 45.82476 -4.19645 32252 ft 428 kts 227°
2026-04-16 13:16 45.78281 -4.25724 32252 ft 428 kts 227°
2026-04-16 13:17 45.74083 -4.31793 32251 ft 429 kts 227°
2026-04-16 13:17 45.69879 -4.37858 32252 ft 429 kts 227°
2026-04-16 13:18 45.65677 -4.43905 32252 ft 429 kts 227°
2026-04-16 13:18 45.61464 -4.49954 32253 ft 429 kts 227°
2026-04-16 13:19 45.57278 -4.55951 32248 ft 429 kts 227°
2026-04-16 13:19 45.53068 -4.61969 32249 ft 429 kts 227°
2026-04-16 13:20 45.48844 -4.67993 32249 ft 429 kts 227°
2026-04-16 13:20 45.44619 -4.74006 32248 ft 429 kts 227°
2026-04-16 13:21 45.40388 -4.80015 32244 ft 429 kts 227°
2026-04-16 13:21 45.36153 -4.86015 32246 ft 429 kts 227°
2026-04-16 13:22 45.31950 -4.91957 32245 ft 429 kts 227°
2026-04-16 13:22 45.27710 -4.97936 32246 ft 429 kts 227°
2026-04-16 13:23 45.23461 -5.03917 32246 ft 429 kts 227°
2026-04-16 13:23 45.19211 -5.09885 32248 ft 430 kts 227°
2026-04-16 13:24 45.14958 -5.15845 32245 ft 430 kts 227°
2026-04-16 13:24 45.10717 -5.21774 32241 ft 430 kts 227°
2026-04-16 13:25 45.06475 -5.27692 32240 ft 430 kts 227°
2026-04-16 13:25 45.02207 -5.33632 32244 ft 430 kts 227°
2026-04-16 13:26 44.97944 -5.39551 32243 ft 430 kts 227°
2026-04-16 13:26 44.93676 -5.45468 32371 ft 432 kts 227°
2026-04-16 13:26 44.91538 -5.48424 32652 ft 432 kts 227°
2026-04-16 13:27 44.89380 -5.51406 32870 ft 433 kts 227°
2026-04-16 13:27 44.87222 -5.54384 33056 ft 434 kts 227°
2026-04-16 13:27 44.85057 -5.57368 33199 ft 435 kts 227°
2026-04-16 13:28 44.80721 -5.63338 33245 ft 435 kts 227°
2026-04-16 13:28 44.76409 -5.69259 33239 ft 435 kts 227°
2026-04-16 13:29 44.72069 -5.75208 33237 ft 435 kts 227°
2026-04-16 13:29 44.67831 -5.81248 33244 ft 432 kts 233°
2026-04-16 13:30 44.64583 -5.88303 33244 ft 428 kts 246°
2026-04-16 13:30 44.62337 -5.96026 33243 ft 427 kts 250°
2026-04-16 13:31 44.60135 -6.03756 33240 ft 426 kts 249°
2026-04-16 13:31 44.57921 -6.11477 33236 ft 426 kts 249°
2026-04-16 13:32 44.55707 -6.19179 33239 ft 426 kts 249°
2026-04-16 13:32 44.53501 -6.26825 33240 ft 426 kts 249°
2026-04-16 13:33 44.51275 -6.34508 33240 ft 425 kts 249°
2026-04-16 13:33 44.49043 -6.42185 33236 ft 425 kts 249°
2026-04-16 13:34 44.46807 -6.49850 33240 ft 425 kts 249°
2026-04-16 13:34 44.44567 -6.57507 33240 ft 425 kts 249°
2026-04-16 13:35 44.42324 -6.65152 33240 ft 425 kts 249°
2026-04-16 13:35 44.40091 -6.72742 33237 ft 424 kts 248°
2026-04-16 13:36 44.37838 -6.80374 33237 ft 424 kts 248°
2026-04-16 13:36 44.35584 -6.87985 33240 ft 424 kts 248°
2026-04-16 13:37 44.33327 -6.95586 33237 ft 423 kts 248°
2026-04-16 13:37 44.31063 -7.03185 33236 ft 423 kts 248°
2026-04-16 13:38 44.28816 -7.10707 33238 ft 422 kts 248°
2026-04-16 13:38 44.26552 -7.18262 33239 ft 422 kts 248°
2026-04-16 13:39 44.24281 -7.25818 33241 ft 422 kts 248°
2026-04-16 13:39 44.22010 -7.33349 33242 ft 421 kts 248°
2026-04-16 13:40 44.19731 -7.40887 33241 ft 421 kts 248°
2026-04-16 13:40 44.17450 -7.48410 33239 ft 421 kts 248°
2026-04-16 13:41 44.15182 -7.55869 33241 ft 421 kts 247°
2026-04-16 13:41 44.12898 -7.63357 33236 ft 420 kts 247°
2026-04-16 13:42 44.10608 -7.70842 33239 ft 420 kts 247°
2026-04-16 13:42 44.08315 -7.78316 33240 ft 420 kts 247°
2026-04-16 13:43 44.06014 -7.85795 33236 ft 420 kts 247°
2026-04-16 13:43 44.03713 -7.93251 33239 ft 419 kts 247°
2026-04-16 13:44 44.01424 -8.00646 33238 ft 419 kts 247°
2026-04-16 13:44 43.99115 -8.08089 33240 ft 419 kts 246°
2026-04-16 13:45 43.96799 -8.15529 33236 ft 419 kts 246°
2026-04-16 13:45 43.94484 -8.22945 33237 ft 419 kts 246°
2026-04-16 13:46 43.92164 -8.30356 33241 ft 418 kts 246°
2026-04-16 13:46 43.89856 -8.37709 33234 ft 418 kts 246°
2026-04-16 13:47 43.87531 -8.45094 33237 ft 418 kts 246°
2026-04-16 13:47 43.85198 -8.52483 33237 ft 418 kts 246°
2026-04-16 13:48 43.82861 -8.59865 33237 ft 418 kts 246°
2026-04-16 13:48 43.80520 -8.67240 33237 ft 418 kts 246°
2026-04-16 13:49 43.78182 -8.74582 33234 ft 419 kts 246°
2026-04-16 13:49 43.75828 -8.81956 33238 ft 419 kts 246°
2026-04-16 13:50 43.73469 -8.89323 33239 ft 419 kts 246°
2026-04-16 13:50 43.71106 -8.96683 33234 ft 419 kts 246°
2026-04-16 13:51 43.68750 -9.04000 33239 ft 419 kts 245°
2026-04-16 13:51 43.66379 -9.11344 33237 ft 419 kts 245°
2026-04-16 13:52 43.64003 -9.18685 33234 ft 419 kts 245°
2026-04-16 13:52 43.61619 -9.26028 33233 ft 419 kts 245°
2026-04-16 13:53 43.59230 -9.33366 33236 ft 419 kts 245°
2026-04-16 13:53 43.56840 -9.40689 33234 ft 419 kts 245°
2026-04-16 13:54 43.54459 -9.47961 33238 ft 419 kts 245°
2026-04-16 13:54 43.52059 -9.55273 33237 ft 418 kts 245°
2026-04-16 13:55 43.49656 -9.62576 33237 ft 418 kts 245°
2026-04-16 13:55 43.47250 -9.69866 33236 ft 418 kts 245°
2026-04-16 13:56 43.44835 -9.77162 33234 ft 418 kts 245°
2026-04-16 13:56 43.42417 -9.84450 33234 ft 418 kts 245°
2026-04-16 13:57 43.40014 -9.91674 33235 ft 418 kts 245°
2026-04-16 13:57 43.37590 -9.98939 33237 ft 418 kts 245°
2026-04-16 13:58 43.33948 -10.09819 33237 ft 417 kts 245°
2026-04-16 13:58 43.31515 -10.17065 33233 ft 418 kts 245°
2026-04-16 13:59 43.29079 -10.24297 33236 ft 417 kts 245°
2026-04-16 13:59 43.27051 -10.30305 33238 ft 417 kts 244°
2026-04-16 14:00 43.24605 -10.37534 33236 ft 417 kts 244°
2026-04-16 14:00 43.22156 -10.44751 33238 ft 417 kts 244°
2026-04-16 14:01 43.19721 -10.51908 33235 ft 417 kts 244°
2026-04-16 14:01 43.17262 -10.59116 33232 ft 417 kts 244°
2026-04-16 14:02 43.14800 -10.66317 33234 ft 417 kts 244°
2026-04-16 14:02 43.12331 -10.73516 33231 ft 418 kts 244°
2026-04-16 14:03 43.09855 -10.80718 33234 ft 418 kts 244°
2026-04-16 14:03 43.07377 -10.87907 33233 ft 418 kts 244°
2026-04-16 14:04 43.04895 -10.95086 33235 ft 418 kts 244°
2026-04-16 14:04 43.02411 -11.02257 33232 ft 417 kts 244°
2026-04-16 14:05 42.99916 -11.09437 33233 ft 417 kts 244°
2026-04-16 14:05 42.97423 -11.16593 33232 ft 417 kts 244°
2026-04-16 14:06 42.94943 -11.23694 33232 ft 417 kts 244°
2026-04-16 14:06 42.92442 -11.30837 33227 ft 417 kts 244°
2026-04-16 14:07 42.89942 -11.37959 33230 ft 417 kts 243°
2026-04-16 14:07 42.87432 -11.45089 33232 ft 417 kts 243°
2026-04-16 14:08 42.84919 -11.52210 33228 ft 417 kts 243°
2026-04-16 14:08 42.82397 -11.59341 33231 ft 417 kts 243°
2026-04-16 14:09 42.79876 -11.66448 33231 ft 417 kts 243°
2026-04-16 14:09 42.77349 -11.73555 33228 ft 416 kts 243°
2026-04-16 14:10 42.74840 -11.80599 33229 ft 416 kts 243°
2026-04-16 14:10 42.72310 -11.87693 33231 ft 416 kts 243°
2026-04-16 14:11 42.69779 -11.94772 33233 ft 416 kts 243°
2026-04-16 14:11 42.67420 -12.01962 33232 ft 418 kts 251°
2026-04-16 14:12 42.65825 -12.09555 33223 ft 418 kts 252°
2026-04-16 14:12 42.64249 -12.17155 33221 ft 418 kts 252°
2026-04-16 14:13 42.62653 -12.24695 33239 ft 417 kts 252°
2026-04-16 14:13 42.61033 -12.32273 33239 ft 418 kts 251°
2026-04-16 14:14 42.59404 -12.39862 33221 ft 418 kts 251°
2026-04-16 14:14 42.57776 -12.47422 33215 ft 418 kts 251°
2026-04-16 14:15 42.56141 -12.54988 33216 ft 417 kts 251°
2026-04-16 14:15 42.54511 -12.62498 33224 ft 418 kts 251°
2026-04-16 14:16 42.52867 -12.70052 33223 ft 418 kts 251°
2026-04-16 14:16 42.51216 -12.77614 33230 ft 418 kts 251°
2026-04-16 14:17 42.49560 -12.85166 33227 ft 418 kts 251°
2026-04-16 14:17 42.47900 -12.92713 33228 ft 418 kts 251°
2026-04-16 14:18 42.46243 -13.00220 33231 ft 418 kts 251°
2026-04-16 14:18 42.44569 -13.07775 33220 ft 418 kts 251°
2026-04-16 14:19 42.42892 -13.15318 33225 ft 419 kts 251°
2026-04-16 14:19 42.41205 -13.22881 33228 ft 419 kts 251°
2026-04-16 14:20 42.39516 -13.30428 33218 ft 419 kts 251°
2026-04-16 14:20 42.37820 -13.37976 33221 ft 419 kts 251°
2026-04-16 14:21 42.36128 -13.45484 33217 ft 420 kts 251°
2026-04-16 14:21 42.34418 -13.53046 33217 ft 420 kts 251°
2026-04-16 14:22 42.32703 -13.60603 33214 ft 421 kts 251°
2026-04-16 14:22 42.30979 -13.68172 33213 ft 421 kts 251°
2026-04-16 14:23 42.29250 -13.75736 33216 ft 421 kts 251°
2026-04-16 14:23 42.27524 -13.83265 33213 ft 422 kts 251°
2026-04-16 14:24 42.25781 -13.90839 33211 ft 422 kts 251°
2026-04-16 14:24 42.24030 -13.98419 33214 ft 423 kts 251°
2026-04-16 14:25 42.22275 -14.05994 33216 ft 423 kts 251°
2026-04-16 14:25 42.20512 -14.13580 33211 ft 424 kts 251°
2026-04-16 14:26 42.18744 -14.21160 33211 ft 424 kts 251°
2026-04-16 14:26 42.16966 -14.28757 33211 ft 425 kts 251°
2026-04-16 14:27 42.15184 -14.36344 33211 ft 425 kts 251°
2026-04-16 14:27 42.13395 -14.43938 33209 ft 425 kts 251°
2026-04-16 14:28 42.11598 -14.51538 33213 ft 426 kts 251°
2026-04-16 14:28 42.09807 -14.59086 33211 ft 426 kts 251°
2026-04-16 14:29 42.07995 -14.66702 33207 ft 426 kts 251°
2026-04-16 14:29 42.06181 -14.74297 33208 ft 426 kts 251°
2026-04-16 14:30 42.04359 -14.81902 33208 ft 426 kts 251°
2026-04-16 14:30 42.02531 -14.89506 33209 ft 427 kts 250°
2026-04-16 14:31 42.00713 -14.97053 33208 ft 427 kts 250°
2026-04-16 14:31 41.98404 -15.04394 33208 ft 426 kts 242°
2026-04-16 14:32 41.95744 -15.11511 33206 ft 426 kts 243°
2026-04-16 14:32 41.93115 -15.18655 33206 ft 426 kts 243°
2026-04-16 14:33 41.90485 -15.25794 33204 ft 427 kts 243°
2026-04-16 14:33 41.87859 -15.32894 33206 ft 427 kts 243°
2026-04-16 14:34 41.85208 -15.40033 33207 ft 427 kts 243°
2026-04-16 14:34 41.82551 -15.47168 33205 ft 427 kts 243°
2026-04-16 14:35 41.79891 -15.54293 33207 ft 427 kts 243°
2026-04-16 14:35 41.77223 -15.61424 33207 ft 428 kts 243°
2026-04-16 14:36 41.74569 -15.68498 33204 ft 428 kts 243°
2026-04-16 14:36 41.71893 -15.75613 33207 ft 428 kts 243°
2026-04-16 14:37 41.69211 -15.82724 33207 ft 428 kts 243°
2026-04-16 14:37 41.66521 -15.89842 33205 ft 429 kts 243°
2026-04-16 14:38 41.63825 -15.96958 33205 ft 429 kts 243°
2026-04-16 14:38 41.61124 -16.04068 33206 ft 429 kts 243°
2026-04-16 14:39 41.58414 -16.11184 33206 ft 430 kts 243°
2026-04-16 14:39 41.55713 -16.18261 33206 ft 430 kts 243°
2026-04-16 14:40 41.52992 -16.25374 33202 ft 430 kts 243°
2026-04-16 14:40 41.50263 -16.32488 33206 ft 431 kts 243°
2026-04-16 14:41 41.47527 -16.39603 33201 ft 431 kts 243°
2026-04-16 14:41 41.44801 -16.46675 33201 ft 431 kts 243°
2026-04-16 14:42 41.42056 -16.53778 33204 ft 432 kts 243°
2026-04-16 14:42 41.39302 -16.60890 33202 ft 432 kts 242°
2026-04-16 14:43 41.36538 -16.68007 33202 ft 432 kts 242°
2026-04-16 14:43 41.33771 -16.75116 33204 ft 433 kts 242°
2026-04-16 14:44 41.30996 -16.82228 33202 ft 433 kts 242°
2026-04-16 14:44 41.28236 -16.89285 33204 ft 433 kts 242°
2026-04-16 14:45 41.25449 -16.96391 33205 ft 434 kts 242°
2026-04-16 14:45 41.22654 -17.03504 33202 ft 434 kts 242°
2026-04-16 14:46 41.19856 -17.10607 33199 ft 434 kts 242°
2026-04-16 14:46 41.17048 -17.17716 33200 ft 435 kts 242°
2026-04-16 14:47 41.14234 -17.24825 33199 ft 435 kts 242°
2026-04-16 14:47 41.11417 -17.31925 33201 ft 435 kts 242°
2026-04-16 14:48 41.08607 -17.38990 33200 ft 436 kts 242°
2026-04-16 14:48 41.05776 -17.46091 33196 ft 436 kts 242°
2026-04-16 14:49 41.02933 -17.53203 33199 ft 436 kts 242°
2026-04-16 14:49 41.00567 -17.59109 33199 ft 437 kts 242°
2026-04-16 14:50 40.97715 -17.66217 33199 ft 437 kts 242°
2026-04-16 14:50 40.94855 -17.73323 33202 ft 437 kts 242°
2026-04-16 14:51 40.91989 -17.80426 33201 ft 438 kts 242°
2026-04-16 14:51 40.89133 -17.87490 33197 ft 438 kts 242°
2026-04-16 14:53 40.77584 -18.15883 33198 ft 439 kts 242°
2026-04-16 14:54 40.74679 -18.22984 33195 ft 440 kts 242°
2026-04-16 14:54 40.71766 -18.30086 33194 ft 440 kts 242°
2026-04-16 14:55 40.68849 -18.37182 33197 ft 441 kts 242°
2026-04-16 14:55 40.65943 -18.44233 33200 ft 440 kts 242°
2026-04-16 14:56 40.63010 -18.51334 33201 ft 441 kts 242°
2026-04-16 14:56 40.60070 -18.58435 33194 ft 441 kts 242°
2026-04-16 14:57 40.57126 -18.65527 33195 ft 442 kts 242°
2026-04-16 14:57 40.54197 -18.72570 33196 ft 442 kts 242°
2026-04-16 14:58 40.49756 -18.83213 33198 ft 443 kts 242°
2026-04-16 14:59 40.46790 -18.90302 33197 ft 443 kts 242°
2026-04-16 14:59 40.43812 -18.97403 33195 ft 443 kts 242°
2026-04-16 15:00 40.40828 -19.04502 33192 ft 444 kts 242°
2026-04-16 15:00 40.37861 -19.11542 33196 ft 444 kts 242°
2026-04-16 15:01 40.34866 -19.18633 33201 ft 444 kts 242°
2026-04-16 15:01 40.31865 -19.25723 33192 ft 445 kts 242°
2026-04-16 15:02 40.28856 -19.32814 33190 ft 445 kts 242°
2026-04-16 15:02 40.25842 -19.39900 33197 ft 445 kts 242°
2026-04-16 15:03 40.22822 -19.46984 33193 ft 445 kts 242°
2026-04-16 15:03 40.19800 -19.54056 33192 ft 445 kts 242°
2026-04-16 15:04 40.16769 -19.61132 33194 ft 445 kts 242°
2026-04-16 15:04 40.13754 -19.68156 33199 ft 445 kts 242°
2026-04-16 15:05 40.10719 -19.75209 33191 ft 445 kts 242°
2026-04-16 15:05 40.07678 -19.82263 33192 ft 445 kts 242°
2026-04-16 15:06 40.04633 -19.89317 33194 ft 445 kts 242°
2026-04-16 15:06 40.01590 -19.96354 33195 ft 445 kts 241°
2026-04-16 15:07 39.98638 -20.03403 33196 ft 445 kts 245°
2026-04-16 15:07 39.96202 -20.10813 33190 ft 445 kts 248°
2026-04-16 15:08 39.93782 -20.18237 33191 ft 445 kts 247°
2026-04-16 15:08 39.91299 -20.25613 33191 ft 444 kts 247°
2026-04-16 15:09 39.88794 -20.32976 33192 ft 444 kts 247°
2026-04-16 15:09 39.86287 -20.40324 33190 ft 444 kts 247°
2026-04-16 15:10 39.83776 -20.47671 33194 ft 444 kts 247°
2026-04-16 15:10 39.81260 -20.55011 33197 ft 444 kts 247°
2026-04-16 15:11 39.78757 -20.62292 33190 ft 443 kts 246°
2026-04-16 15:11 39.76235 -20.69599 33194 ft 443 kts 246°
2026-04-16 15:12 39.73709 -20.76899 33189 ft 443 kts 246°
2026-04-16 15:12 39.71180 -20.84188 33197 ft 442 kts 246°
2026-04-16 15:13 39.68648 -20.91465 33196 ft 442 kts 246°
2026-04-16 15:13 39.66114 -20.98734 33194 ft 441 kts 246°
2026-04-16 15:14 39.63575 -21.05995 33191 ft 441 kts 246°
2026-04-16 15:14 39.61054 -21.13189 33194 ft 441 kts 246°
2026-04-16 15:15 39.58508 -21.20437 33187 ft 441 kts 246°
2026-04-16 15:15 39.55958 -21.27674 33184 ft 441 kts 246°
2026-04-16 15:16 39.53407 -21.34899 33191 ft 441 kts 246°
2026-04-16 15:16 39.50848 -21.42128 33183 ft 441 kts 246°
2026-04-16 15:17 39.48289 -21.49340 33192 ft 441 kts 246°
2026-04-16 15:17 39.45725 -21.56548 33186 ft 441 kts 246°
2026-04-16 15:18 39.43168 -21.63716 33185 ft 441 kts 246°
2026-04-16 15:18 39.40595 -21.70914 33185 ft 440 kts 246°
2026-04-16 15:19 39.38018 -21.78105 33182 ft 441 kts 246°
2026-04-16 15:19 39.35437 -21.85288 33184 ft 440 kts 246°
2026-04-16 15:20 39.32855 -21.92460 33182 ft 440 kts 246°
2026-04-16 15:20 39.30268 -21.99624 33190 ft 440 kts 246°
2026-04-16 15:21 39.27678 -22.06781 33200 ft 440 kts 246°
2026-04-16 15:21 39.25088 -22.13921 33184 ft 440 kts 245°
2026-04-16 15:22 39.22504 -22.21027 33184 ft 439 kts 245°
2026-04-16 15:22 39.19906 -22.28152 33179 ft 439 kts 245°
2026-04-16 15:23 39.17303 -22.35275 33186 ft 440 kts 245°
2026-04-16 15:23 39.14691 -22.42406 33174 ft 440 kts 245°
2026-04-16 15:24 39.12075 -22.49530 33170 ft 440 kts 245°
2026-04-16 15:24 39.09457 -22.56644 33181 ft 439 kts 245°
2026-04-16 15:25 39.06845 -22.63721 33198 ft 439 kts 245°
2026-04-16 15:25 39.04222 -22.70815 33198 ft 439 kts 245°
2026-04-16 15:26 39.01590 -22.77913 33177 ft 439 kts 245°
2026-04-16 15:26 38.98971 -22.84962 33174 ft 439 kts 245°
2026-04-16 15:27 38.96335 -22.92040 33171 ft 439 kts 245°
2026-04-16 15:27 38.93691 -22.99121 33190 ft 439 kts 245°
2026-04-16 15:28 38.91047 -23.06186 33194 ft 439 kts 245°
2026-04-16 15:28 38.88400 -23.13243 33187 ft 439 kts 245°
2026-04-16 15:29 38.85745 -23.20304 33168 ft 439 kts 245°
2026-04-16 15:29 38.83089 -23.27352 33172 ft 439 kts 245°
2026-04-16 15:30 38.80446 -23.34349 33183 ft 438 kts 245°
2026-04-16 15:30 38.77781 -23.41388 33194 ft 438 kts 244°
2026-04-16 15:31 38.75134 -23.48362 33189 ft 438 kts 244°
2026-04-16 15:31 38.72448 -23.55424 33170 ft 438 kts 244°
2026-04-16 15:32 38.69773 -23.62438 33165 ft 438 kts 244°
2026-04-16 15:32 38.67098 -23.69437 33185 ft 437 kts 244°
2026-04-16 15:33 38.64432 -23.76397 33189 ft 437 kts 244°
2026-04-16 15:33 38.61751 -23.83381 33189 ft 437 kts 244°
2026-04-16 15:34 38.59061 -23.90372 33183 ft 437 kts 244°
2026-04-16 15:34 38.56373 -23.97342 33169 ft 437 kts 244°
2026-04-16 15:35 38.53682 -24.04303 33168 ft 436 kts 244°
2026-04-16 15:35 38.50991 -24.11247 33188 ft 436 kts 244°
2026-04-16 15:36 38.48298 -24.18184 33185 ft 436 kts 244°
2026-04-16 15:36 38.45599 -24.25118 33182 ft 436 kts 244°
2026-04-16 15:37 38.42899 -24.32038 33182 ft 436 kts 244°
2026-04-16 15:37 38.40215 -24.38905 33180 ft 435 kts 244°
2026-04-16 15:38 38.37506 -24.45817 33183 ft 435 kts 244°
2026-04-16 15:38 38.35253 -24.51557 33180 ft 435 kts 244°
2026-04-16 15:39 38.32538 -24.58457 33181 ft 435 kts 244°
2026-04-16 15:39 38.29822 -24.65344 33181 ft 435 kts 244°
2026-04-16 15:40 38.27106 -24.72216 33179 ft 435 kts 244°
2026-04-16 15:40 38.24388 -24.79078 33181 ft 434 kts 244°
2026-04-16 15:41 38.21662 -24.85944 33179 ft 434 kts 244°
2026-04-16 15:41 38.18953 -24.92753 33180 ft 434 kts 244°
2026-04-16 15:42 38.16222 -24.99604 33178 ft 434 kts 244°
2026-04-16 15:42 38.13490 -25.06441 33182 ft 434 kts 244°
2026-04-16 15:43 38.10753 -25.13274 33181 ft 434 kts 244°
2026-04-16 15:43 38.08016 -25.20092 33181 ft 433 kts 244°
2026-04-16 15:44 38.05275 -25.26906 33182 ft 433 kts 244°
2026-04-16 15:44 38.02532 -25.33711 33182 ft 433 kts 244°
2026-04-16 15:45 37.99799 -25.40476 33183 ft 433 kts 243°
2026-04-16 15:45 37.97043 -25.47283 33184 ft 433 kts 243°
2026-04-16 15:46 37.94293 -25.54061 33183 ft 433 kts 243°
2026-04-16 15:46 37.91532 -25.60852 33184 ft 433 kts 243°
2026-04-16 15:47 37.88790 -25.67581 33184 ft 433 kts 243°
2026-04-16 15:47 37.86022 -25.74357 33183 ft 433 kts 243°
2026-04-16 15:48 37.83251 -25.81127 33181 ft 432 kts 243°
2026-04-16 15:48 37.80481 -25.87882 33183 ft 432 kts 243°
2026-04-16 15:49 37.77724 -25.94589 33186 ft 432 kts 243°
2026-04-16 15:49 37.74945 -26.01336 33184 ft 432 kts 243°
2026-04-16 15:50 37.72169 -26.08063 33185 ft 432 kts 243°
2026-04-16 15:50 37.69387 -26.14787 33185 ft 432 kts 243°
2026-04-16 15:51 37.66601 -26.21507 33185 ft 432 kts 243°
2026-04-16 15:51 37.63816 -26.28213 33183 ft 432 kts 243°
2026-04-16 15:52 37.61022 -26.34924 33186 ft 432 kts 243°
2026-04-16 15:52 37.58223 -26.41634 33186 ft 432 kts 243°
2026-04-16 15:53 37.55442 -26.48286 33187 ft 432 kts 243°
2026-04-16 15:53 37.52638 -26.54979 33186 ft 431 kts 243°
2026-04-16 15:54 37.49834 -26.61659 33187 ft 431 kts 243°
2026-04-16 15:54 37.47022 -26.68343 33185 ft 431 kts 243°
2026-04-16 15:55 37.44213 -26.75007 33184 ft 431 kts 243°
2026-04-16 15:55 37.41408 -26.81647 33183 ft 431 kts 243°
2026-04-16 15:56 37.38586 -26.88313 33187 ft 431 kts 243°
2026-04-16 15:56 37.35762 -26.94971 33185 ft 432 kts 243°
2026-04-16 15:57 37.32930 -27.01632 33186 ft 432 kts 243°
2026-04-16 15:57 37.30094 -27.08290 33187 ft 432 kts 243°
2026-04-16 15:58 37.27256 -27.14940 33190 ft 432 kts 243°
2026-04-16 15:58 37.24431 -27.21544 33191 ft 432 kts 243°
2026-04-16 15:59 37.20159 -27.31507 33189 ft 432 kts 243°
2026-04-16 15:59 37.17305 -27.38146 33189 ft 432 kts 243°
2026-04-16 16:00 37.14448 -27.44777 33188 ft 432 kts 243°
2026-04-16 16:00 37.11585 -27.51409 33189 ft 432 kts 243°
2026-04-16 16:01 37.08720 -27.58033 33182 ft 433 kts 243°
2026-04-16 16:01 37.05846 -27.64663 33189 ft 433 kts 243°
2026-04-16 16:02 37.02988 -27.71243 33188 ft 433 kts 243°
2026-04-16 16:02 37.00110 -27.77857 33190 ft 433 kts 243°
2026-04-16 16:03 36.97226 -27.84471 33188 ft 433 kts 243°
2026-04-16 16:03 36.94335 -27.91085 33188 ft 433 kts 243°
2026-04-16 16:04 36.91438 -27.97702 33190 ft 433 kts 243°
2026-04-16 16:04 36.88539 -28.04310 33189 ft 433 kts 243°
2026-04-16 16:05 36.85652 -28.10877 33187 ft 434 kts 243°
2026-04-16 16:05 36.82742 -28.17482 33189 ft 434 kts 243°
2026-04-16 16:06 36.79828 -28.24084 33190 ft 434 kts 243°
2026-04-16 16:06 36.76905 -28.30691 33189 ft 434 kts 243°
2026-04-16 16:07 36.73996 -28.37256 33186 ft 435 kts 243°
2026-04-16 16:07 36.71048 -28.43894 33194 ft 435 kts 243°
2026-04-16 16:08 36.68131 -28.50451 33195 ft 436 kts 243°
2026-04-16 16:08 36.65185 -28.57058 33192 ft 436 kts 242°
2026-04-16 16:09 36.62234 -28.63663 33192 ft 436 kts 242°
2026-04-16 16:09 36.59280 -28.70262 33191 ft 437 kts 242°
2026-04-16 16:10 36.56320 -28.76861 33192 ft 437 kts 242°
2026-04-16 16:10 36.53350 -28.83468 33190 ft 437 kts 242°
2026-04-16 16:11 36.50375 -28.90075 33192 ft 438 kts 242°
2026-04-16 16:11 36.47393 -28.96683 33193 ft 438 kts 242°
2026-04-16 16:12 36.44400 -29.03302 33192 ft 439 kts 242°
2026-04-16 16:12 36.41431 -29.09857 33192 ft 439 kts 242°
2026-04-16 16:13 36.38430 -29.16468 33191 ft 440 kts 242°
2026-04-16 16:13 36.35423 -29.23078 33190 ft 440 kts 242°
2026-04-16 16:14 36.32409 -29.29692 33192 ft 440 kts 242°
2026-04-16 16:14 36.29388 -29.36308 33194 ft 441 kts 242°
2026-04-16 16:15 36.26364 -29.42918 33193 ft 441 kts 242°
2026-04-16 16:15 36.23350 -29.49491 33193 ft 441 kts 242°
2026-04-16 16:16 36.20293 -29.56146 33190 ft 442 kts 242°
2026-04-16 16:16 36.17271 -29.62718 33195 ft 442 kts 242°
2026-04-16 16:17 36.14222 -29.69340 33194 ft 443 kts 242°
2026-04-16 16:17 36.11170 -29.75954 33194 ft 443 kts 242°
2026-04-16 16:18 36.08114 -29.82566 33196 ft 443 kts 242°
2026-04-16 16:18 36.05044 -29.89193 33193 ft 443 kts 242°
2026-04-16 16:19 36.01973 -29.95811 33195 ft 444 kts 242°
2026-04-16 16:19 35.99256 -30.02626 33196 ft 442 kts 253°
2026-04-16 16:20 35.97458 -30.09896 33200 ft 442 kts 254°
2026-04-16 16:20 35.95675 -30.17160 33202 ft 442 kts 254°
2026-04-16 16:21 35.93875 -30.24372 33196 ft 442 kts 253°
2026-04-16 16:21 35.92052 -30.31626 33196 ft 442 kts 253°
2026-04-16 16:22 35.90225 -30.38876 33197 ft 443 kts 253°
2026-04-16 16:22 35.88690 -30.44951 33198 ft 443 kts 253°
2026-04-16 16:23 35.86866 -30.52155 33200 ft 443 kts 253°
2026-04-16 16:23 35.85024 -30.59401 33197 ft 443 kts 253°
2026-04-16 16:24 35.83173 -30.66651 33198 ft 443 kts 253°
2026-04-16 16:24 35.81316 -30.73903 33195 ft 443 kts 253°
2026-04-16 16:25 35.79470 -30.81092 33199 ft 443 kts 253°
2026-04-16 16:25 35.77607 -30.88326 33195 ft 442 kts 253°
2026-04-16 16:26 35.75741 -30.95550 33202 ft 443 kts 253°
2026-04-16 16:26 35.73898 -31.02663 33197 ft 429 kts 253°
2026-04-16 16:27 35.72073 -31.09693 33197 ft 433 kts 253°
2026-04-16 16:27 35.70239 -31.16738 33198 ft 432 kts 253°
2026-04-16 16:28 35.68398 -31.23792 33197 ft 432 kts 253°
2026-04-16 16:28 35.66554 -31.30834 33197 ft 432 kts 253°
2026-04-16 16:29 35.64706 -31.37875 33198 ft 432 kts 253°
2026-04-16 16:29 35.62855 -31.44908 33197 ft 433 kts 253°
2026-04-16 16:30 35.61007 -31.51912 33197 ft 433 kts 253°
2026-04-16 16:30 35.59144 -31.58952 33198 ft 433 kts 253°
2026-04-16 16:31 35.57279 -31.65983 33198 ft 433 kts 253°
2026-04-16 16:31 35.55409 -31.73015 33197 ft 433 kts 253°
2026-04-16 16:32 35.53530 -31.80058 33198 ft 433 kts 253°
2026-04-16 16:32 35.51649 -31.87093 33197 ft 433 kts 253°
2026-04-16 16:33 35.49778 -31.94071 33199 ft 434 kts 253°
2026-04-16 16:33 35.47885 -32.01113 33196 ft 434 kts 253°
2026-04-16 16:34 35.45989 -32.08147 33198 ft 434 kts 253°
2026-04-16 16:34 35.44087 -32.15187 33201 ft 434 kts 253°
2026-04-16 16:35 35.42191 -32.22186 33201 ft 435 kts 253°
2026-04-16 16:35 35.40281 -32.29218 33202 ft 435 kts 253°
2026-04-16 16:36 35.38364 -32.36253 33196 ft 435 kts 253°
2026-04-16 16:36 35.36440 -32.43299 33199 ft 436 kts 253°
2026-04-16 16:37 35.34514 -32.50336 33199 ft 436 kts 253°
2026-04-16 16:37 35.32579 -32.57386 33199 ft 436 kts 253°
2026-04-16 16:38 35.30642 -32.64425 33202 ft 437 kts 253°
2026-04-16 16:38 35.28707 -32.71439 33200 ft 437 kts 253°
2026-04-16 16:39 35.26752 -32.78504 33195 ft 438 kts 253°
2026-04-16 16:39 35.24795 -32.85562 33196 ft 438 kts 253°
2026-04-16 16:40 35.22830 -32.92628 33198 ft 439 kts 253°
2026-04-16 16:40 35.20858 -32.99704 33199 ft 439 kts 253°
2026-04-16 16:41 35.18892 -33.06739 33199 ft 440 kts 253°
2026-04-16 16:41 35.16908 -33.13819 33199 ft 440 kts 253°
2026-04-16 16:42 35.14919 -33.20902 33200 ft 441 kts 253°
2026-04-16 16:42 35.12908 -33.28040 33199 ft 441 kts 253°
2026-04-16 16:43 35.10920 -33.35081 33201 ft 442 kts 253°
2026-04-16 16:43 35.08907 -33.42191 33198 ft 442 kts 253°
2026-04-16 16:44 35.06894 -33.49287 33197 ft 443 kts 253°
2026-04-16 16:44 35.04867 -33.56409 33198 ft 443 kts 253°
2026-04-16 16:45 35.02852 -33.63474 33199 ft 444 kts 253°
2026-04-16 16:45 35.00820 -33.70580 33198 ft 444 kts 253°
2026-04-16 16:46 34.98782 -33.77688 33198 ft 444 kts 253°
2026-04-16 16:46 34.96733 -33.84814 33199 ft 445 kts 253°
2026-04-16 16:47 34.94681 -33.91936 33197 ft 445 kts 253°
2026-04-16 16:47 34.92621 -33.99067 33200 ft 446 kts 253°
2026-04-16 16:48 34.90557 -34.06195 33202 ft 446 kts 253°
2026-04-16 16:48 34.88485 -34.13329 33206 ft 446 kts 253°
2026-04-16 16:49 34.86423 -34.20416 33205 ft 447 kts 253°
2026-04-16 16:49 34.84344 -34.27540 33204 ft 447 kts 253°
2026-04-16 16:50 34.82252 -34.34692 33205 ft 447 kts 253°
2026-04-16 16:50 34.80169 -34.41797 33206 ft 448 kts 253°
2026-04-16 16:51 34.78064 -34.48957 33203 ft 448 kts 253°
2026-04-16 16:51 34.75960 -34.56096 33208 ft 448 kts 253°
2026-04-16 16:52 34.73848 -34.63244 33204 ft 449 kts 253°
2026-04-16 16:52 34.71729 -34.70398 33204 ft 449 kts 253°
2026-04-16 16:53 34.69608 -34.77540 33205 ft 450 kts 253°
2026-04-16 16:53 34.67493 -34.84646 33210 ft 450 kts 253°
2026-04-16 16:54 34.65356 -34.91807 33208 ft 451 kts 253°
2026-04-16 16:54 34.63214 -34.98969 33207 ft 451 kts 253°
2026-04-16 16:55 34.61065 -35.06134 33206 ft 452 kts 253°
2026-04-16 16:55 34.58913 -35.13294 33199 ft 452 kts 253°
2026-04-16 16:56 34.56750 -35.20470 33221 ft 452 kts 253°
2026-04-16 16:56 34.54585 -35.27637 33223 ft 453 kts 253°
2026-04-16 16:57 34.51332 -35.38374 33545 ft 455 kts 253°
2026-04-16 16:57 34.50236 -35.41983 33685 ft 457 kts 253°
2026-04-16 16:58 34.49134 -35.45605 33844 ft 457 kts 253°
2026-04-16 16:58 34.48033 -35.49219 34036 ft 457 kts 253°
2026-04-16 16:58 34.46931 -35.52833 34219 ft 457 kts 253°
2026-04-16 16:58 34.45829 -35.56444 34383 ft 456 kts 253°
2026-04-16 16:59 34.44727 -35.60046 34578 ft 455 kts 253°
2026-04-16 16:59 34.43628 -35.63637 34756 ft 455 kts 253°
2026-04-16 16:59 34.42527 -35.67232 34932 ft 454 kts 252°
2026-04-16 16:59 34.41430 -35.70807 35110 ft 453 kts 252°
2026-04-16 17:00 34.40703 -35.73174 35222 ft 453 kts 252°
2026-04-16 17:00 34.39247 -35.77910 35467 ft 451 kts 252°
2026-04-16 17:00 34.38152 -35.81467 35624 ft 451 kts 252°
2026-04-16 17:00 34.37054 -35.85030 35794 ft 450 kts 252°
2026-04-16 17:01 34.35958 -35.88582 35963 ft 450 kts 252°
2026-04-16 17:01 34.34864 -35.92123 36130 ft 449 kts 252°
2026-04-16 17:01 34.33768 -35.95664 36220 ft 449 kts 252°
2026-04-16 17:02 34.31582 -36.02718 36221 ft 448 kts 252°
2026-04-16 17:02 34.29390 -36.09776 36217 ft 448 kts 252°
2026-04-16 17:03 34.27191 -36.16836 36219 ft 448 kts 252°
2026-04-16 17:03 34.24986 -36.23902 36216 ft 449 kts 252°
2026-04-16 17:04 34.22778 -36.30958 36218 ft 449 kts 252°
2026-04-16 17:04 34.20564 -36.38020 36218 ft 449 kts 252°
2026-04-16 17:05 34.18350 -36.45064 36215 ft 449 kts 252°
2026-04-16 17:05 34.16140 -36.52077 36216 ft 449 kts 252°
2026-04-16 17:06 34.13910 -36.59140 36226 ft 450 kts 252°
2026-04-16 17:06 34.11679 -36.66188 36222 ft 450 kts 252°
2026-04-16 17:07 34.09440 -36.73243 36221 ft 450 kts 252°
2026-04-16 17:07 34.07578 -36.79102 36223 ft 450 kts 252°
2026-04-16 17:08 34.05328 -36.86162 36222 ft 450 kts 252°
2026-04-16 17:08 34.03076 -36.93214 36224 ft 451 kts 252°
2026-04-16 17:09 34.00818 -37.00270 36228 ft 451 kts 252°
2026-04-16 17:09 33.98556 -37.07319 36225 ft 451 kts 252°
2026-04-16 17:10 33.96286 -37.14376 36228 ft 451 kts 252°
2026-04-16 17:10 33.94027 -37.21384 36228 ft 452 kts 252°
2026-04-16 17:11 33.91744 -37.28450 36229 ft 452 kts 252°
2026-04-16 17:11 33.89461 -37.35501 36228 ft 452 kts 252°
2026-04-16 17:12 33.87174 -37.42549 36228 ft 452 kts 252°
2026-04-16 17:12 33.84875 -37.49614 36226 ft 453 kts 252°
2026-04-16 17:13 33.82587 -37.56634 36229 ft 453 kts 252°
2026-04-16 17:13 33.80279 -37.63696 36229 ft 453 kts 252°
2026-04-16 17:14 33.77967 -37.70754 36231 ft 454 kts 252°
2026-04-16 17:14 33.75659 -37.77784 36230 ft 454 kts 252°
2026-04-16 17:15 33.73335 -37.84847 36231 ft 455 kts 252°
2026-04-16 17:15 33.71003 -37.91920 36231 ft 455 kts 252°
2026-04-16 17:16 33.68669 -37.98981 36232 ft 455 kts 252°
2026-04-16 17:16 33.66323 -38.06061 36234 ft 456 kts 252°
2026-04-16 17:17 33.63974 -38.13139 36233 ft 456 kts 252°
2026-04-16 17:17 33.61617 -38.20220 36233 ft 457 kts 252°
2026-04-16 17:18 33.59268 -38.27262 36235 ft 457 kts 252°
2026-04-16 17:18 33.56900 -38.34348 36235 ft 458 kts 252°
2026-04-16 17:19 33.54526 -38.41433 36238 ft 458 kts 252°
2026-04-16 17:19 33.52143 -38.48530 36235 ft 459 kts 252°
2026-04-16 17:20 33.49755 -38.55628 36236 ft 459 kts 252°
2026-04-16 17:20 33.47361 -38.62725 36236 ft 460 kts 252°
2026-04-16 17:21 33.44958 -38.69834 36236 ft 460 kts 252°
2026-04-16 17:21 33.42549 -38.76943 36238 ft 461 kts 252°
2026-04-16 17:22 33.40134 -38.84055 36238 ft 461 kts 252°
2026-04-16 17:22 33.37728 -38.91124 36237 ft 462 kts 252°
2026-04-16 17:23 33.35302 -38.98236 36239 ft 462 kts 252°
2026-04-16 17:23 33.32869 -39.05354 36240 ft 462 kts 252°
2026-04-16 17:24 33.30426 -39.12483 36242 ft 463 kts 252°
2026-04-16 17:24 33.27978 -39.19612 36240 ft 463 kts 252°
2026-04-16 17:25 33.25525 -39.26740 36238 ft 464 kts 252°
2026-04-16 17:25 33.23068 -39.33865 36243 ft 464 kts 252°
2026-04-16 17:26 33.20615 -39.40961 36239 ft 465 kts 252°
2026-04-16 17:26 33.18142 -39.48099 36240 ft 465 kts 252°
2026-04-16 17:27 33.15664 -39.55236 36235 ft 466 kts 252°
2026-04-16 17:27 33.13178 -39.62389 36233 ft 466 kts 252°
2026-04-16 17:28 33.10703 -39.69498 36247 ft 466 kts 252°
2026-04-16 17:28 33.08212 -39.76642 36248 ft 467 kts 252°
2026-04-16 17:29 33.05713 -39.83790 36247 ft 467 kts 252°
2026-04-16 17:29 33.03211 -39.90931 36240 ft 467 kts 252°
2026-04-16 17:30 33.00703 -39.98072 36245 ft 467 kts 252°
2026-04-16 17:30 32.98428 -40.05307 36235 ft 463 kts 258°
2026-04-16 17:31 32.96687 -40.12690 36239 ft 463 kts 259°
2026-04-16 17:31 32.94892 -40.20071 36247 ft 464 kts 258°
2026-04-16 17:32 32.93047 -40.27390 36239 ft 464 kts 258°
2026-04-16 17:32 32.91174 -40.34748 36245 ft 465 kts 258°
2026-04-16 17:33 32.89296 -40.42111 36249 ft 465 kts 258°
2026-04-16 17:33 32.87413 -40.49478 36244 ft 465 kts 258°
2026-04-16 17:34 32.85527 -40.56838 36256 ft 465 kts 258°
2026-04-16 17:34 32.83632 -40.64199 36249 ft 465 kts 258°
2026-04-16 17:35 32.81731 -40.71558 36243 ft 466 kts 258°
2026-04-16 17:35 32.79826 -40.78914 36251 ft 466 kts 258°
2026-04-16 17:36 32.77928 -40.86223 36249 ft 466 kts 258°
2026-04-16 17:36 32.76011 -40.93586 36248 ft 466 kts 258°
2026-04-16 17:37 32.74086 -41.00956 36243 ft 466 kts 257°
2026-04-16 17:37 32.72158 -41.08322 36245 ft 467 kts 257°
2026-04-16 17:38 32.70226 -41.15681 36250 ft 467 kts 257°
2026-04-16 17:38 32.68290 -41.23037 36250 ft 467 kts 257°
2026-04-16 17:39 32.66359 -41.30357 36250 ft 467 kts 257°
2026-04-16 17:39 32.64440 -41.37610 36250 ft 467 kts 257°
2026-04-16 17:40 32.62503 -41.44912 36245 ft 467 kts 257°
2026-04-16 17:40 32.60543 -41.52282 36246 ft 468 kts 257°
2026-04-16 17:41 32.58583 -41.59632 36247 ft 468 kts 257°
2026-04-16 17:41 32.56655 -41.66843 36245 ft 468 kts 257°
2026-04-16 17:42 32.54770 -41.73877 36242 ft 468 kts 257°
2026-04-16 17:42 32.52819 -41.81136 36253 ft 469 kts 257°
2026-04-16 17:43 32.50852 -41.88437 36250 ft 469 kts 257°
2026-04-16 17:43 32.49109 -41.94891 36252 ft 469 kts 257°
2026-04-16 17:44 32.47402 -42.01199 36248 ft 469 kts 257°
2026-04-16 17:44 32.45770 -42.07221 36273 ft 469 kts 257°
2026-04-16 17:45 32.43729 -42.14727 36242 ft 470 kts 257°
2026-04-16 17:45 32.41725 -42.22074 36262 ft 470 kts 257°
2026-04-16 17:46 32.39721 -42.29406 36260 ft 470 kts 257°
2026-04-16 17:46 32.37704 -42.36766 36246 ft 470 kts 257°
2026-04-16 17:47 32.35680 -42.44135 36238 ft 471 kts 257°
2026-04-16 17:47 32.33647 -42.51517 36257 ft 471 kts 257°
2026-04-16 17:48 32.31626 -42.58834 36250 ft 471 kts 257°
2026-04-16 17:48 32.29583 -42.66214 36251 ft 471 kts 256°
2026-04-16 17:49 32.27535 -42.73594 36250 ft 472 kts 256°
2026-04-16 17:49 32.25495 -42.80924 36252 ft 472 kts 256°
2026-04-16 17:50 32.23438 -42.88299 36249 ft 472 kts 256°
2026-04-16 17:50 32.21376 -42.95672 36250 ft 473 kts 256°
2026-04-16 17:51 32.19309 -43.03045 36252 ft 473 kts 256°
2026-04-16 17:51 32.17246 -43.10385 36250 ft 473 kts 256°
2026-04-16 17:52 32.15166 -43.17766 36252 ft 473 kts 256°
2026-04-16 17:52 32.13085 -43.25135 36254 ft 473 kts 256°
2026-04-16 17:53 32.10997 -43.32509 36248 ft 473 kts 256°
2026-04-16 17:53 32.08916 -43.39838 36248 ft 473 kts 256°
2026-04-16 17:54 32.06820 -43.47204 36252 ft 473 kts 256°
2026-04-16 17:54 32.04731 -43.54523 36253 ft 474 kts 256°
2026-04-16 17:55 32.02626 -43.61884 36246 ft 474 kts 256°
2026-04-16 17:55 32.00518 -43.69236 36252 ft 474 kts 255°
2026-04-16 17:56 31.98759 -43.75358 36255 ft 474 kts 255°
2026-04-16 17:56 31.95572 -43.86416 36251 ft 475 kts 255°
2026-04-16 17:57 31.93441 -43.93785 36250 ft 475 kts 255°
2026-04-16 17:57 31.91309 -44.01141 36249 ft 475 kts 255°
2026-04-16 17:58 31.89170 -44.08504 36255 ft 475 kts 255°
2026-04-16 17:58 31.87036 -44.15832 36255 ft 475 kts 255°
2026-04-16 17:59 31.84888 -44.23189 36251 ft 476 kts 255°
2026-04-16 17:59 31.82731 -44.30558 36249 ft 476 kts 255°
2026-04-16 18:00 31.80573 -44.37913 36252 ft 476 kts 255°
2026-04-16 18:00 31.78410 -44.45271 36253 ft 476 kts 255°
2026-04-16 18:01 31.76250 -44.52598 36253 ft 477 kts 255°
2026-04-16 18:01 31.74077 -44.59950 36251 ft 477 kts 255°
2026-04-16 18:02 31.71887 -44.67345 36251 ft 477 kts 255°
2026-04-16 18:02 31.69712 -44.74668 36249 ft 477 kts 255°
2026-04-16 18:03 31.67519 -44.82038 36252 ft 478 kts 255°
2026-04-16 18:03 31.65323 -44.89397 36251 ft 478 kts 254°
2026-04-16 18:04 31.63116 -44.96778 36252 ft 478 kts 254°
2026-04-16 18:04 31.60904 -45.04155 36257 ft 479 kts 254°
2026-04-16 18:05 31.58696 -45.11501 36257 ft 479 kts 254°
2026-04-16 18:05 31.56472 -45.18886 36257 ft 479 kts 254°
2026-04-16 18:06 31.54246 -45.26258 36258 ft 479 kts 254°
2026-04-16 18:06 31.52030 -45.33578 36256 ft 480 kts 254°
2026-04-16 18:07 31.49792 -45.40956 36260 ft 480 kts 254°
2026-04-16 18:07 31.47546 -45.48341 36259 ft 480 kts 254°
2026-04-16 18:08 31.45298 -45.55719 36259 ft 480 kts 254°
2026-04-16 18:08 31.43061 -45.63039 36258 ft 480 kts 254°
2026-04-16 18:09 31.40805 -45.70406 36260 ft 480 kts 254°
2026-04-16 18:09 31.38543 -45.77774 36262 ft 480 kts 253°
2026-04-16 18:10 31.36279 -45.85133 36256 ft 481 kts 253°
2026-04-16 18:10 31.34010 -45.92490 36261 ft 481 kts 253°
2026-04-16 18:11 31.31732 -45.99858 36261 ft 481 kts 253°
2026-04-16 18:11 31.29452 -46.07217 36262 ft 481 kts 253°
2026-04-16 18:12 31.27168 -46.14571 36259 ft 481 kts 253°
2026-04-16 18:12 31.24878 -46.21928 36260 ft 481 kts 253°
2026-04-16 18:13 31.22599 -46.29231 36262 ft 481 kts 253°
2026-04-16 18:13 31.20295 -46.36598 36266 ft 482 kts 253°
2026-04-16 18:14 31.17991 -46.43949 36262 ft 482 kts 253°
2026-04-16 18:14 31.15683 -46.51295 36269 ft 482 kts 253°
2026-04-16 18:15 31.13368 -46.58648 36265 ft 482 kts 253°
2026-04-16 18:15 31.11068 -46.65937 36262 ft 482 kts 252°
2026-04-16 18:16 31.08742 -46.73291 36264 ft 482 kts 252°
2026-04-16 18:16 31.06410 -46.80645 36262 ft 483 kts 252°
2026-04-16 18:17 31.04074 -46.87997 36259 ft 483 kts 252°
2026-04-16 18:17 31.01736 -46.95338 36262 ft 483 kts 252°
2026-04-16 18:18 30.99408 -47.02632 36271 ft 483 kts 252°
2026-04-16 18:18 30.97060 -47.09971 36272 ft 483 kts 252°
2026-04-16 18:19 30.94707 -47.17311 36267 ft 483 kts 252°
2026-04-16 18:19 30.92351 -47.24640 36246 ft 484 kts 252°
2026-04-16 18:20 30.89989 -47.31976 36263 ft 483 kts 252°
2026-04-16 18:20 30.87619 -47.39318 36264 ft 484 kts 252°
2026-04-16 18:21 30.85249 -47.46642 36262 ft 484 kts 252°
2026-04-16 18:21 30.82884 -47.53937 36263 ft 484 kts 251°
2026-04-16 18:22 30.80506 -47.61252 36263 ft 484 kts 251°
2026-04-16 18:22 30.78119 -47.68580 36263 ft 484 kts 251°
2026-04-16 18:23 30.75728 -47.75907 36262 ft 484 kts 251°
2026-04-16 18:23 30.73335 -47.83222 36264 ft 484 kts 251°
2026-04-16 18:24 30.70938 -47.90532 36261 ft 484 kts 251°
2026-04-16 18:24 30.68550 -47.97799 36261 ft 484 kts 251°
2026-04-16 18:25 30.66129 -48.05151 36264 ft 484 kts 251°
2026-04-16 18:25 30.63735 -48.12405 36263 ft 484 kts 251°
2026-04-16 18:26 30.61317 -48.19717 36260 ft 485 kts 251°
2026-04-16 18:26 30.58892 -48.27033 36259 ft 485 kts 250°
2026-04-16 18:27 30.56466 -48.34335 36260 ft 485 kts 250°
2026-04-16 18:27 30.54035 -48.41635 36261 ft 485 kts 250°
2026-04-16 18:28 30.51599 -48.48935 36261 ft 485 kts 250°
2026-04-16 18:28 30.49155 -48.56244 36259 ft 485 kts 250°
2026-04-16 18:29 30.46726 -48.63493 36260 ft 485 kts 250°
2026-04-16 18:29 30.44278 -48.70781 36259 ft 485 kts 250°
2026-04-16 18:30 30.41826 -48.78066 36257 ft 485 kts 250°
2026-04-16 18:30 30.39369 -48.85352 36257 ft 485 kts 250°
2026-04-16 18:31 30.36904 -48.92644 36256 ft 485 kts 250°
2026-04-16 18:31 30.34453 -48.99878 36259 ft 485 kts 249°
2026-04-16 18:32 30.31983 -49.07153 36260 ft 485 kts 249°
2026-04-16 18:32 30.29496 -49.14464 36259 ft 485 kts 249°
2026-04-16 18:33 30.27023 -49.21718 36259 ft 485 kts 249°
2026-04-16 18:33 30.24546 -49.28970 36259 ft 485 kts 249°
2026-04-16 18:34 30.22077 -49.36180 36256 ft 485 kts 249°
2026-04-16 18:34 30.19592 -49.43422 36257 ft 484 kts 249°
2026-04-16 18:35 30.17107 -49.50650 36258 ft 484 kts 249°
2026-04-16 18:35 30.14616 -49.57882 36256 ft 484 kts 249°
2026-04-16 18:36 30.12126 -49.65105 36256 ft 483 kts 249°
2026-04-16 18:36 30.09638 -49.72309 36258 ft 483 kts 249°
2026-04-16 18:37 30.07160 -49.79467 36256 ft 482 kts 249°
2026-04-16 18:37 30.04665 -49.86664 36254 ft 482 kts 249°
2026-04-16 18:38 30.02170 -49.93843 36254 ft 482 kts 249°
2026-04-16 18:38 29.99624 -50.00987 36254 ft 481 kts 246°
2026-04-16 18:39 29.96813 -50.07997 36251 ft 481 kts 246°
2026-04-16 18:39 29.94082 -50.15025 36254 ft 480 kts 246°
2026-04-16 18:40 29.91803 -50.20867 36257 ft 480 kts 246°
2026-04-16 18:40 29.89054 -50.27873 36255 ft 479 kts 246°
2026-04-16 18:41 29.86300 -50.34868 36258 ft 479 kts 246°
2026-04-16 18:41 29.83565 -50.41801 36253 ft 478 kts 246°
2026-04-16 18:42 29.80808 -50.48770 36254 ft 477 kts 246°
2026-04-16 18:42 29.78053 -50.55717 36255 ft 476 kts 246°
2026-04-16 18:43 29.75295 -50.62661 36250 ft 476 kts 246°
2026-04-16 18:43 29.72559 -50.69537 36252 ft 475 kts 246°
2026-04-16 18:44 29.69803 -50.76448 36251 ft 474 kts 246°
2026-04-16 18:44 29.67047 -50.83345 36251 ft 474 kts 246°
2026-04-16 18:45 29.64295 -50.90221 36254 ft 473 kts 246°
2026-04-16 18:45 29.61539 -50.97096 36249 ft 472 kts 246°
2026-04-16 18:46 29.58789 -51.03941 36245 ft 472 kts 246°
2026-04-16 18:46 29.56049 -51.10751 36245 ft 471 kts 246°
2026-04-16 18:47 29.53295 -51.17585 36246 ft 471 kts 246°
2026-04-16 18:47 29.50537 -51.24413 36245 ft 471 kts 246°
2026-04-16 18:48 29.47777 -51.31235 36244 ft 471 kts 246°
2026-04-16 18:48 29.45017 -51.38044 36245 ft 471 kts 246°
2026-04-16 18:49 29.42252 -51.44857 36245 ft 470 kts 246°
2026-04-16 18:49 29.39485 -51.51657 36244 ft 470 kts 246°
2026-04-16 18:50 29.36716 -51.58453 36246 ft 470 kts 246°
2026-04-16 18:50 29.33944 -51.65246 36245 ft 470 kts 246°
2026-04-16 18:51 29.31169 -51.72032 36246 ft 470 kts 246°
2026-04-16 18:51 29.28391 -51.78813 36250 ft 470 kts 246°
2026-04-16 18:52 29.25607 -51.85594 36247 ft 470 kts 246°
2026-04-16 18:52 29.22826 -51.92358 36247 ft 469 kts 245°
2026-04-16 18:53 29.20042 -51.99119 36248 ft 469 kts 245°
2026-04-16 18:53 29.17273 -52.05832 36249 ft 469 kts 245°
2026-04-16 18:54 29.14484 -52.12578 36247 ft 469 kts 245°
2026-04-16 18:54 29.11691 -52.19324 36265 ft 468 kts 245°
2026-04-16 18:55 29.08897 -52.26057 36245 ft 468 kts 245°
2026-04-16 18:55 29.06122 -52.32742 36246 ft 468 kts 245°
2026-04-16 18:56 29.03323 -52.39470 36243 ft 468 kts 245°
2026-04-16 18:56 29.00527 -52.46180 36241 ft 468 kts 245°
2026-04-16 18:57 28.97742 -52.52847 36241 ft 468 kts 245°
2026-04-16 18:58 28.93524 -52.62922 36234 ft 468 kts 245°
2026-04-16 18:58 28.90713 -52.69623 36236 ft 468 kts 245°
2026-04-16 18:59 28.87915 -52.76280 36236 ft 468 kts 245°
2026-04-16 18:59 28.85097 -52.82977 36234 ft 468 kts 245°
2026-04-16 19:00 28.82281 -52.89656 36232 ft 467 kts 244°
2026-04-16 19:00 28.79464 -52.96328 36254 ft 467 kts 244°
2026-04-16 19:01 28.76634 -53.03016 36255 ft 467 kts 244°
2026-04-16 19:01 28.73821 -53.09654 36235 ft 467 kts 244°
2026-04-16 19:02 28.70995 -53.16314 36228 ft 467 kts 244°
2026-04-16 19:02 28.68161 -53.22979 36233 ft 466 kts 244°
2026-04-16 19:03 28.65555 -53.29097 36205 ft 467 kts 244°
2026-04-16 19:03 28.63096 -53.34866 36269 ft 466 kts 244°
2026-04-16 19:04 28.60212 -53.41614 36250 ft 466 kts 244°
2026-04-16 19:04 28.58377 -53.45905 36256 ft 467 kts 244°
2026-04-16 19:05 28.55831 -53.51844 36261 ft 466 kts 244°
2026-04-16 19:05 28.53025 -53.58382 36242 ft 466 kts 244°
2026-04-16 19:06 28.50365 -53.64572 36205 ft 466 kts 244°
2026-04-16 19:06 28.47900 -53.70300 36196 ft 468 kts 244°
2026-04-16 19:07 28.45083 -53.76835 36229 ft 466 kts 244°
2026-04-16 19:07 28.42259 -53.83375 36219 ft 467 kts 244°
2026-04-16 19:08 28.39656 -53.89396 36285 ft 465 kts 244°
2026-04-16 19:08 28.36783 -53.96021 36244 ft 467 kts 244°
2026-04-16 19:09 28.33909 -54.02638 36224 ft 467 kts 244°
2026-04-16 19:09 28.31045 -54.09229 36223 ft 467 kts 244°
2026-04-16 19:10 28.28173 -54.15827 36239 ft 467 kts 244°
2026-04-16 19:10 28.25291 -54.22438 36236 ft 466 kts 244°
2026-04-16 19:11 28.22412 -54.29031 36228 ft 466 kts 244°
2026-04-16 19:11 28.19542 -54.35592 36227 ft 466 kts 244°
2026-04-16 19:12 28.16656 -54.42180 36225 ft 466 kts 244°
2026-04-16 19:12 28.13774 -54.48748 36233 ft 465 kts 244°
2026-04-16 19:13 28.10887 -54.55319 36229 ft 465 kts 244°
2026-04-16 19:13 28.07995 -54.61887 36215 ft 465 kts 244°
2026-04-16 19:14 28.05118 -54.68413 36230 ft 465 kts 244°
2026-04-16 19:14 28.02223 -54.74967 36228 ft 465 kts 244°
2026-04-16 19:15 27.99331 -54.81506 36221 ft 465 kts 244°
2026-04-16 19:15 27.96430 -54.88053 36217 ft 465 kts 244°
2026-04-16 19:16 27.93520 -54.94610 36223 ft 465 kts 244°
2026-04-16 19:16 27.90629 -55.01115 36222 ft 465 kts 244°
2026-04-16 19:17 27.87721 -55.07646 36215 ft 464 kts 244°
2026-04-16 19:17 27.84831 -55.14127 36214 ft 464 kts 244°
2026-04-16 19:18 27.81914 -55.20660 36221 ft 464 kts 244°
2026-04-16 19:18 27.78998 -55.27177 36220 ft 464 kts 244°
2026-04-16 19:19 27.76087 -55.33674 36219 ft 464 kts 244°
2026-04-16 19:19 27.73184 -55.40144 36218 ft 463 kts 244°
2026-04-16 19:20 27.70273 -55.46621 36219 ft 463 kts 244°
2026-04-16 19:20 27.67356 -55.53100 36217 ft 463 kts 244°
2026-04-16 19:21 27.64434 -55.59582 36210 ft 462 kts 244°
2026-04-16 19:21 27.61517 -55.66039 36211 ft 462 kts 244°
2026-04-16 19:22 27.58611 -55.72465 36210 ft 462 kts 244°
2026-04-16 19:22 27.55687 -55.78919 36212 ft 462 kts 244°
2026-04-16 19:23 27.52765 -55.85359 36211 ft 461 kts 244°
2026-04-16 19:23 27.49841 -55.91795 36208 ft 461 kts 244°
2026-04-16 19:24 27.46914 -55.98227 36213 ft 461 kts 244°
2026-04-16 19:24 27.43981 -56.04660 36205 ft 461 kts 244°
2026-04-16 19:25 27.41071 -56.11036 36208 ft 461 kts 244°
2026-04-16 19:25 27.38613 -56.16415 36206 ft 460 kts 244°
2026-04-16 19:26 27.35697 -56.22784 36201 ft 460 kts 244°
2026-04-16 19:26 27.32760 -56.29188 36205 ft 460 kts 244°
2026-04-16 19:27 27.29822 -56.35588 36205 ft 460 kts 244°
2026-04-16 19:27 27.26881 -56.41982 36205 ft 460 kts 244°
2026-04-16 19:28 27.23960 -56.48324 36202 ft 460 kts 244°
2026-04-16 19:28 27.20998 -56.54746 36203 ft 460 kts 244°
2026-04-16 19:29 27.18072 -56.61080 36205 ft 459 kts 244°
2026-04-16 19:29 27.15125 -56.67448 36205 ft 459 kts 244°
2026-04-16 19:30 27.12169 -56.73832 36202 ft 459 kts 244°
2026-04-16 19:30 27.09237 -56.80158 36206 ft 459 kts 243°
2026-04-16 19:31 27.06287 -56.86513 36202 ft 459 kts 243°
2026-04-16 19:31 27.03337 -56.92859 36200 ft 458 kts 243°
2026-04-16 19:32 27.00329 -56.99179 36199 ft 459 kts 240°
2026-04-16 19:32 26.96718 -57.05091 36195 ft 459 kts 235°
2026-04-16 19:33 26.92973 -57.10845 36200 ft 459 kts 236°
2026-04-16 19:33 26.89225 -57.16657 36194 ft 459 kts 236°
2026-04-16 19:34 26.85476 -57.22453 36192 ft 459 kts 235°
2026-04-16 19:34 26.81748 -57.28201 36196 ft 459 kts 235°
2026-04-16 19:35 26.77990 -57.33987 36194 ft 459 kts 235°
2026-04-16 19:35 26.74240 -57.39754 36194 ft 458 kts 235°
2026-04-16 19:36 26.70482 -57.45526 36194 ft 458 kts 235°
2026-04-16 19:36 26.66745 -57.51256 36195 ft 458 kts 235°
2026-04-16 19:37 26.62986 -57.57015 36191 ft 458 kts 235°
2026-04-16 19:37 26.59223 -57.62773 36189 ft 458 kts 235°
2026-04-16 19:38 26.55460 -57.68521 36190 ft 458 kts 235°
2026-04-16 19:38 26.51702 -57.74257 36192 ft 458 kts 235°
2026-04-16 19:39 26.47934 -57.79999 36188 ft 458 kts 235°
2026-04-16 19:39 26.44190 -57.85698 36187 ft 457 kts 235°
2026-04-16 19:40 26.40425 -57.91421 36187 ft 457 kts 235°
2026-04-16 19:40 26.36659 -57.97140 36185 ft 457 kts 235°
2026-04-16 19:41 26.32885 -58.02863 36184 ft 457 kts 235°
2026-04-16 19:41 26.29117 -58.08569 36187 ft 457 kts 235°
2026-04-16 19:42 26.25375 -58.14229 36187 ft 456 kts 235°
2026-04-16 19:42 26.21612 -58.19914 36184 ft 456 kts 235°
2026-04-16 19:43 26.17842 -58.25602 36185 ft 456 kts 235°
2026-04-16 19:43 26.14078 -58.31274 36185 ft 455 kts 235°
2026-04-16 19:44 26.10313 -58.36942 36185 ft 455 kts 235°
2026-04-16 19:44 26.06544 -58.42607 36185 ft 454 kts 235°
2026-04-16 19:45 26.02807 -58.48218 36183 ft 454 kts 235°
2026-04-16 19:45 25.99041 -58.53866 36184 ft 453 kts 235°
2026-04-16 19:46 25.95295 -58.59477 36184 ft 452 kts 235°
2026-04-16 19:46 25.91554 -58.65073 36179 ft 452 kts 235°
2026-04-16 19:47 25.87807 -58.70672 36177 ft 451 kts 235°
2026-04-16 19:47 25.84059 -58.76266 36172 ft 451 kts 235°
2026-04-16 19:48 25.80315 -58.81847 36173 ft 450 kts 235°
2026-04-16 19:48 25.76566 -58.87428 36169 ft 450 kts 235°
2026-04-16 19:49 25.72817 -58.93003 36171 ft 450 kts 235°
2026-04-16 19:49 25.69074 -58.98562 36167 ft 449 kts 235°
2026-04-16 19:50 25.65356 -59.04078 36167 ft 449 kts 235°
2026-04-16 19:50 25.61605 -59.09636 36161 ft 449 kts 235°
2026-04-16 19:51 25.57866 -59.15169 36163 ft 449 kts 235°
2026-04-16 19:51 25.54123 -59.20703 36167 ft 449 kts 235°
2026-04-16 19:52 25.50370 -59.26244 36162 ft 449 kts 235°
2026-04-16 19:52 25.46649 -59.31732 36161 ft 449 kts 235°
2026-04-16 19:53 25.42892 -59.37266 36158 ft 449 kts 234°
2026-04-16 19:53 25.39131 -59.42799 36158 ft 449 kts 234°
2026-04-16 19:54 25.35377 -59.48317 36156 ft 449 kts 234°
2026-04-16 19:54 25.31620 -59.53831 36159 ft 449 kts 234°
2026-04-16 19:55 25.27880 -59.59314 36159 ft 449 kts 234°
2026-04-16 19:55 25.24111 -59.64834 36153 ft 449 kts 234°
2026-04-16 19:56 25.20340 -59.70351 36155 ft 450 kts 234°
2026-04-16 19:56 25.16568 -59.75861 36147 ft 450 kts 234°
2026-04-16 19:57 25.12850 -59.81288 36151 ft 450 kts 234°
2026-04-16 19:57 25.09656 -59.85946 36132 ft 451 kts 234°
2026-04-16 19:58 25.06136 -59.91073 36148 ft 451 kts 234°
2026-04-16 19:58 25.03044 -59.95574 36147 ft 451 kts 234°
2026-04-16 19:59 24.99832 -60.00414 36144 ft 450 kts 239°
2026-04-16 19:59 24.97573 -60.05008 36142 ft 449 kts 244°
2026-04-16 20:00 24.94554 -60.11440 36142 ft 450 kts 243°
2026-04-16 20:00 24.92335 -60.16108 36143 ft 450 kts 243°
2026-04-16 20:01 24.91115 -60.18666 36143 ft 450 kts 243°
2026-04-16 20:01 24.88605 -60.23921 36139 ft 451 kts 243°
2026-04-16 20:02 24.85674 -60.30043 36134 ft 451 kts 243°
2026-04-16 20:02 24.83409 -60.34768 36141 ft 451 kts 243°
2026-04-16 20:03 24.81745 -60.38238 36139 ft 451 kts 243°
2026-04-16 20:03 24.78877 -60.44211 36144 ft 452 kts 243°
2026-04-16 20:04 24.76113 -60.49960 36145 ft 452 kts 243°
2026-04-16 20:04 24.73429 -60.55539 36142 ft 452 kts 243°
2026-04-16 20:05 24.70478 -60.61652 36141 ft 452 kts 243°
2026-04-16 20:05 24.67533 -60.67753 36136 ft 452 kts 243°
2026-04-16 20:06 24.64579 -60.73869 36136 ft 452 kts 243°
2026-04-16 20:06 24.61631 -60.79966 36138 ft 452 kts 243°
2026-04-16 20:07 24.58697 -60.86025 36139 ft 451 kts 243°
2026-04-16 20:07 24.55745 -60.92113 36135 ft 451 kts 243°
2026-04-16 20:08 24.52798 -60.98183 36133 ft 451 kts 243°
2026-04-16 20:08 24.49842 -61.04265 36134 ft 451 kts 243°
2026-04-16 20:09 24.46885 -61.10342 36130 ft 450 kts 243°
2026-04-16 20:09 24.43942 -61.16381 36128 ft 450 kts 243°
2026-04-16 20:10 24.41484 -61.21419 36123 ft 450 kts 243°
2026-04-16 20:10 24.38524 -61.27480 36127 ft 450 kts 243°
2026-04-16 20:11 24.35560 -61.33539 36125 ft 450 kts 243°
2026-04-16 20:11 24.32602 -61.39579 36122 ft 450 kts 243°
2026-04-16 20:12 24.29659 -61.45581 36122 ft 450 kts 243°
2026-04-16 20:12 24.26693 -61.51623 36123 ft 449 kts 243°
2026-04-16 20:13 24.23725 -61.57662 36122 ft 449 kts 243°
2026-04-16 20:13 24.20784 -61.63636 36111 ft 449 kts 242°
2026-04-16 20:14 24.18317 -61.68647 36142 ft 449 kts 242°
2026-04-16 20:14 24.15565 -61.74227 36090 ft 450 kts 242°
2026-04-16 20:15 24.13063 -61.79291 36135 ft 449 kts 242°
2026-04-16 20:15 24.10325 -61.84828 36097 ft 450 kts 242°
2026-04-16 20:16 24.07467 -61.90600 36124 ft 450 kts 242°
2026-04-16 20:16 24.05677 -61.94213 36133 ft 450 kts 242°
2026-04-16 20:17 24.02985 -61.99642 36124 ft 451 kts 242°
2026-04-16 20:17 23.99986 -62.05680 36121 ft 451 kts 242°
2026-04-16 20:18 23.96987 -62.11710 36112 ft 451 kts 242°
2026-04-16 20:18 23.93983 -62.17745 36098 ft 452 kts 242°
2026-04-16 20:19 23.90986 -62.23757 36113 ft 452 kts 242°
2026-04-16 20:19 23.87979 -62.29783 36114 ft 452 kts 242°
2026-04-16 20:20 23.84973 -62.35799 36110 ft 452 kts 242°
2026-04-16 20:20 23.81954 -62.41834 36111 ft 452 kts 242°
2026-04-16 20:21 23.78940 -62.47850 36108 ft 451 kts 242°
2026-04-16 20:21 23.75918 -62.53876 36105 ft 451 kts 242°
2026-04-16 20:22 23.72901 -62.59883 36109 ft 451 kts 242°
2026-04-16 20:22 23.69890 -62.65872 36097 ft 451 kts 242°
2026-04-16 20:23 23.66869 -62.71874 36098 ft 451 kts 242°
2026-04-16 20:23 23.63845 -62.77874 36099 ft 451 kts 242°
2026-04-16 20:24 23.60812 -62.83884 36101 ft 451 kts 242°
2026-04-16 20:24 23.57784 -62.89876 36098 ft 451 kts 242°
2026-04-16 20:25 23.54772 -62.95832 36100 ft 451 kts 242°
2026-04-16 20:25 23.51737 -63.01828 36098 ft 451 kts 242°
2026-04-16 20:26 23.48443 -63.07657 36087 ft 452 kts 235°
2026-04-16 20:26 23.44729 -63.13211 36090 ft 452 kts 235°
2026-04-16 20:27 23.41075 -63.18742 36086 ft 453 kts 235°
2026-04-16 20:27 23.37395 -63.24303 36087 ft 453 kts 235°
2026-04-16 20:28 23.33698 -63.29880 36087 ft 453 kts 235°
2026-04-16 20:28 23.30008 -63.35438 36088 ft 454 kts 235°
2026-04-16 20:29 23.26308 -63.41007 36087 ft 454 kts 235°
2026-04-16 20:29 23.22611 -63.46563 36085 ft 454 kts 235°
2026-04-16 20:30 23.18899 -63.52137 36086 ft 454 kts 235°
2026-04-16 20:30 23.15196 -63.57692 36085 ft 454 kts 235°
2026-04-16 20:31 23.11513 -63.63210 36085 ft 454 kts 235°
2026-04-16 20:31 23.07798 -63.68770 36081 ft 455 kts 235°
2026-04-16 20:32 23.04123 -63.74265 36084 ft 455 kts 235°
2026-04-16 20:32 23.00906 -63.79069 36086 ft 455 kts 235°
2026-04-16 20:33 22.97181 -63.84628 36079 ft 455 kts 235°
2026-04-16 20:33 22.93453 -63.90183 36078 ft 455 kts 235°
2026-04-16 20:34 22.89745 -63.95705 36076 ft 455 kts 235°
2026-04-16 20:34 22.86015 -64.01253 36073 ft 455 kts 235°
2026-04-16 20:35 22.82273 -64.06813 36078 ft 455 kts 235°
2026-04-16 20:35 22.78530 -64.12366 36072 ft 456 kts 235°
2026-04-16 20:36 22.74786 -64.17917 36071 ft 456 kts 235°
2026-04-16 20:36 22.71039 -64.23467 36072 ft 456 kts 235°
2026-04-16 20:37 22.67308 -64.28986 36069 ft 456 kts 235°
2026-04-16 20:37 22.63552 -64.34536 36067 ft 457 kts 234°
2026-04-16 20:38 22.59818 -64.40048 36067 ft 457 kts 234°
2026-04-16 20:38 22.56054 -64.45598 36063 ft 457 kts 234°
2026-04-16 20:39 22.52288 -64.51147 36066 ft 457 kts 234°
2026-04-16 20:39 22.48522 -64.56689 36061 ft 457 kts 234°
2026-04-16 20:40 22.44752 -64.62230 36059 ft 457 kts 234°
2026-04-16 20:40 22.40979 -64.67770 36060 ft 457 kts 234°
2026-04-16 20:41 22.37235 -64.73263 36058 ft 457 kts 234°
2026-04-16 20:41 22.33452 -64.78807 36063 ft 457 kts 234°
2026-04-16 20:42 22.29675 -64.84337 36057 ft 458 kts 234°
2026-04-16 20:42 22.25889 -64.89874 36058 ft 458 kts 234°
2026-04-16 20:43 22.22104 -64.95403 36056 ft 458 kts 234°
2026-04-16 20:43 22.18316 -65.00932 36052 ft 458 kts 234°
2026-04-16 20:44 22.14526 -65.06457 36059 ft 458 kts 234°
2026-04-16 20:44 22.10617 -65.11889 36051 ft 459 kts 229°
2026-04-16 20:45 22.05924 -65.16564 36043 ft 460 kts 218°
2026-04-16 20:45 22.00770 -65.20659 36052 ft 460 kts 218°
2026-04-16 20:46 21.95662 -65.24759 36044 ft 461 kts 218°
2026-04-16 20:46 21.90521 -65.28888 36039 ft 461 kts 218°
2026-04-16 20:47 21.85374 -65.33015 36047 ft 461 kts 218°
2026-04-16 20:47 21.80224 -65.37139 36048 ft 461 kts 218°
2026-04-16 20:48 21.75062 -65.41270 36035 ft 461 kts 218°
2026-04-16 20:48 21.69910 -65.45387 36042 ft 461 kts 218°
2026-04-16 20:49 21.64784 -65.49481 36036 ft 462 kts 218°
2026-04-16 20:49 21.59618 -65.53603 36050 ft 462 kts 218°
2026-04-16 20:50 21.54461 -65.57714 36032 ft 462 kts 218°
2026-04-16 20:50 21.49295 -65.61828 36030 ft 462 kts 218°
2026-04-16 20:51 21.44122 -65.65945 36035 ft 462 kts 218°
2026-04-16 20:51 21.38956 -65.70052 36028 ft 462 kts 218°
2026-04-16 20:52 21.33783 -65.74161 36028 ft 462 kts 218°
2026-04-16 20:52 21.28607 -65.78269 36029 ft 463 kts 218°
2026-04-16 20:53 21.23462 -65.82348 36034 ft 463 kts 217°
2026-04-16 20:53 21.18283 -65.86451 36031 ft 463 kts 217°
2026-04-16 20:54 21.13094 -65.90558 36023 ft 463 kts 217°
2026-04-16 20:54 21.08780 -65.93968 36023 ft 463 kts 217°
2026-04-16 20:55 21.03597 -65.98064 36014 ft 463 kts 217°
2026-04-16 20:55 20.98408 -66.02161 36027 ft 463 kts 217°
2026-04-16 20:56 20.93226 -66.06249 36037 ft 463 kts 217°
2026-04-16 20:56 20.88043 -66.10334 36030 ft 463 kts 217°
2026-04-16 20:57 20.82850 -66.14422 36003 ft 463 kts 217°
2026-04-16 20:57 20.77675 -66.18493 36005 ft 463 kts 217°
2026-04-16 20:58 20.72479 -66.22577 36030 ft 462 kts 217°
2026-04-16 20:58 20.67298 -66.26646 36027 ft 462 kts 217°
2026-04-16 20:59 20.62107 -66.30720 36002 ft 463 kts 217°
2026-04-16 20:59 20.56927 -66.34780 36020 ft 462 kts 217°
2026-04-16 21:00 20.51766 -66.38823 36022 ft 462 kts 217°
2026-04-16 21:00 20.46551 -66.42905 36016 ft 462 kts 217°
2026-04-16 21:01 20.41397 -66.46935 36016 ft 462 kts 217°
2026-04-16 21:01 20.36198 -66.50996 36013 ft 462 kts 217°
2026-04-16 21:02 20.31014 -66.55043 36012 ft 462 kts 217°
2026-04-16 21:03 20.23228 -66.61115 36010 ft 462 kts 217°
2026-04-16 21:03 20.18031 -66.65162 36008 ft 462 kts 217°
2026-04-16 21:04 20.12835 -66.69207 36005 ft 462 kts 217°
2026-04-16 21:04 20.07647 -66.73241 36008 ft 462 kts 217°
2026-04-16 21:05 20.02458 -66.77274 36009 ft 462 kts 217°
2026-04-16 21:05 19.97510 -66.81522 36002 ft 460 kts 225°
2026-04-16 21:06 19.92963 -66.86318 36002 ft 460 kts 225°
2026-04-16 21:06 19.88403 -66.91090 36000 ft 460 kts 225°
2026-04-16 21:07 19.83833 -66.95860 35687 ft 461 kts 225°
2026-04-16 21:07 19.81544 -66.98246 35443 ft 462 kts 225°
2026-04-16 21:07 19.79247 -67.00641 35197 ft 463 kts 225°
2026-04-16 21:07 19.76945 -67.03039 34969 ft 465 kts 225°
2026-04-16 21:08 19.74638 -67.05442 34651 ft 466 kts 225°
2026-04-16 21:08 19.72316 -67.07859 33958 ft 469 kts 225°
2026-04-16 21:08 19.69971 -67.10299 32944 ft 473 kts 225°
2026-04-16 21:08 19.67651 -67.12712 32214 ft 471 kts 225°
2026-04-16 21:09 19.65325 -67.15129 31755 ft 464 kts 225°
2026-04-16 21:09 19.63030 -67.17513 31201 ft 459 kts 225°
2026-04-16 21:09 19.60750 -67.19883 30632 ft 457 kts 224°
2026-04-16 21:09 19.58639 -67.22074 30061 ft 455 kts 224°
2026-04-16 21:10 19.56342 -67.24458 29486 ft 450 kts 224°
2026-04-16 21:10 19.54108 -67.26775 28921 ft 446 kts 224°
2026-04-16 21:10 19.51899 -67.29065 28378 ft 441 kts 225°
2026-04-16 21:10 19.49718 -67.31327 27820 ft 437 kts 225°
2026-04-16 21:11 19.47557 -67.33566 27288 ft 432 kts 225°
2026-04-16 21:11 19.45415 -67.35785 26750 ft 428 kts 225°
2026-04-16 21:11 19.43295 -67.37981 26200 ft 424 kts 225°
2026-04-16 21:11 19.41197 -67.40152 25676 ft 420 kts 225°
2026-04-16 21:12 19.39116 -67.42307 25114 ft 417 kts 225°
2026-04-16 21:12 19.37077 -67.44416 24632 ft 412 kts 225°
2026-04-16 21:12 19.35031 -67.46532 24105 ft 408 kts 225°
2026-04-16 21:12 19.33008 -67.48623 23563 ft 405 kts 225°
2026-04-16 21:13 19.31003 -67.50694 23051 ft 399 kts 225°
2026-04-16 21:13 19.29032 -67.52731 22522 ft 393 kts 225°
2026-04-16 21:13 19.27091 -67.54735 22024 ft 387 kts 225°
2026-04-16 21:13 19.25173 -67.56715 21513 ft 381 kts 225°
2026-04-16 21:14 19.23290 -67.58658 21038 ft 375 kts 225°
2026-04-16 21:14 19.21432 -67.60575 20558 ft 370 kts 225°
2026-04-16 21:14 19.19604 -67.62460 20074 ft 365 kts 225°
2026-04-16 21:14 19.17816 -67.64303 19598 ft 360 kts 224°
2026-04-16 21:15 19.16033 -67.66141 19111 ft 356 kts 224°
2026-04-16 21:15 19.14263 -67.67964 18656 ft 352 kts 224°
2026-04-16 21:15 19.12505 -67.69774 18182 ft 356 kts 224°
2026-04-16 21:15 19.10723 -67.71610 17680 ft 360 kts 224°
2026-04-16 21:16 19.08927 -67.73458 17212 ft 359 kts 224°
2026-04-16 21:16 19.07152 -67.75284 16719 ft 353 kts 224°
2026-04-16 21:16 19.05404 -67.77081 16268 ft 347 kts 224°
2026-04-16 21:16 19.03688 -67.78845 15805 ft 341 kts 224°
2026-04-16 21:17 19.01995 -67.80585 15343 ft 336 kts 224°
2026-04-16 21:17 19.00322 -67.82305 14910 ft 344 kts 224°
2026-04-16 21:17 18.98560 -67.84114 14613 ft 357 kts 224°
2026-04-16 21:17 18.96779 -67.85943 14278 ft 358 kts 224°
2026-04-16 21:18 18.94983 -67.87787 13587 ft 363 kts 224°
2026-04-16 21:18 18.93184 -67.89632 12843 ft 363 kts 224°
2026-04-16 21:18 18.91384 -67.91480 12465 ft 350 kts 224°
2026-04-16 21:18 18.89683 -67.93226 12021 ft 340 kts 223°
2026-04-16 21:19 18.88008 -67.94944 11584 ft 332 kts 223°
2026-04-16 21:19 18.86375 -67.96617 11269 ft 321 kts 223°
2026-04-16 21:19 18.84792 -67.98239 11184 ft 337 kts 223°
2026-04-16 21:19 18.83104 -68.00013 11144 ft 343 kts 227°
2026-04-16 21:20 18.81646 -68.01977 11090 ft 336 kts 233°
2026-04-16 21:20 18.80317 -68.03949 10978 ft 324 kts 237°
2026-04-16 21:20 18.79361 -68.06047 10852 ft 308 kts 247°
2026-04-16 21:20 18.78600 -68.08101 10593 ft 295 kts 249°
2026-04-16 21:21 18.77971 -68.10149 10109 ft 292 kts 252°
2026-04-16 21:21 18.77399 -68.12198 9578 ft 290 kts 252°
2026-04-16 21:21 18.76832 -68.14241 8972 ft 289 kts 252°
2026-04-16 21:21 18.76270 -68.16271 8401 ft 288 kts 252°
2026-04-16 21:22 18.75711 -68.18300 7822 ft 287 kts 252°
2026-04-16 21:22 18.75155 -68.20323 7255 ft 286 kts 252°
2026-04-16 21:22 18.74619 -68.22281 6870 ft 280 kts 252°
2026-04-16 21:22 18.74072 -68.24273 6688 ft 285 kts 252°
2026-04-16 21:23 18.73517 -68.26288 6569 ft 286 kts 252°
2026-04-16 21:23 18.72966 -68.28294 6454 ft 284 kts 252°
2026-04-16 21:23 18.72415 -68.30299 6227 ft 285 kts 252°
2026-04-16 21:23 18.71864 -68.32299 5979 ft 283 kts 252°
2026-04-16 21:24 18.71324 -68.34269 5747 ft 283 kts 252°
2026-04-16 21:24 18.70777 -68.36254 5499 ft 282 kts 252°
2026-04-16 21:24 18.70243 -68.38184 5259 ft 282 kts 252°
2026-04-16 21:24 18.69695 -68.40162 5026 ft 281 kts 252°
2026-04-16 21:25 18.69144 -68.42136 4783 ft 279 kts 252°
2026-04-16 21:25 18.68595 -68.44108 4513 ft 279 kts 252°
2026-04-16 21:25 18.68052 -68.46056 4126 ft 276 kts 252°
2026-04-16 21:25 18.67510 -68.47999 3570 ft 275 kts 252°
2026-04-16 21:26 18.66971 -68.49907 3261 ft 267 kts 252°
2026-04-16 21:26 18.66421 -68.51837 3109 ft 277 kts 252°
2026-04-16 21:26 18.65837 -68.53722 3002 ft 261 kts 245°
2026-04-16 21:26 18.64875 -68.55104 2997 ft 244 kts 219°
2026-04-16 21:27 18.63482 -68.55973 2991 ft 224 kts 197°
2026-04-16 21:27 18.62950 -68.56146 3003 ft 220 kts 192°
2026-04-16 21:27 18.62151 -68.56302 3005 ft 226 kts 184°
2026-04-16 21:27 18.60582 -68.56347 3007 ft 224 kts 174°
2026-04-16 21:28 18.59049 -68.56189 2997 ft 219 kts 169°
2026-04-16 21:28 18.57604 -68.55963 2999 ft 209 kts 167°
2026-04-16 21:28 18.56175 -68.55721 3001 ft 208 kts 168°
2026-04-16 21:28 18.54731 -68.55501 3006 ft 210 kts 169°
2026-04-16 21:29 18.53409 -68.54898 2801 ft 211 kts 137°
2026-04-16 21:29 18.52629 -68.53619 2553 ft 210 kts 103°
2026-04-16 21:29 18.52805 -68.52117 2302 ft 212 kts 65°
2026-04-16 21:29 18.53472 -68.50738 2058 ft 209 kts 64°
2026-04-16 21:30 18.53833 -68.49764 1819 ft 205 kts 74°
2026-04-16 21:30 18.54203 -68.48350 1439 ft 197 kts 75°
2026-04-16 21:30 18.54530 -68.46977 1254 ft 182 kts 74°
2026-04-16 21:30 18.54889 -68.45772 1238 ft 164 kts 69°
2026-04-16 21:31 18.55247 -68.44676 1143 ft 155 kts 72°
2026-04-16 21:31 18.55552 -68.43613 992 ft 148 kts 71°
2026-04-16 21:31 18.55872 -68.42567 846 ft 149 kts 72°
2026-04-16 21:31 18.56154 -68.41543 798 ft 149 kts 73°
2026-04-16 21:32 18.56440 -68.40465 632 ft 154 kts 73°
2026-04-16 21:32 18.56728 -68.39399 361 ft 151 kts 73°
2026-04-16 21:32 18.57024 -68.38340 126 ft 150 kts 71°
2026-04-16 21:32 18.57285 -68.37389 50 ft 129 kts 73°
2026-04-16 21:33 18.57481 -68.36682 50 ft 69 kts 73°
2026-04-16 21:33 18.57565 -68.36375 52 ft 31 kts 73°
2026-04-16 21:33 18.57597 -68.36239 53 ft 17 kts 82°
2026-04-16 21:33 18.57608 -68.36115 50 ft 17 kts 91°
2026-04-16 21:34 18.57584 -68.35991 48 ft 18 kts 104°
2026-04-16 21:34 18.57527 -68.35874 46 ft 19 kts 136°
2026-04-16 21:34 18.57404 -68.35837 52 ft 19 kts 175°
2026-04-16 21:34 18.57269 -68.35829 53 ft 20 kts 176°
2026-04-16 21:35 18.57130 -68.35821 53 ft 20 kts 177°
2026-04-16 21:35 18.56985 -68.35813 48 ft 21 kts 177°
2026-04-16 21:35 18.56832 -68.35803 51 ft 23 kts 176°
2026-04-16 21:35 18.56673 -68.35787 52 ft 23 kts 174°
2026-04-16 21:36 18.56551 -68.35781 51 ft 15 kts 192°
2026-04-16 21:36 18.56511 -68.35870 50 ft 15 kts 263°
2026-04-16 21:36 18.56501 -68.35982 52 ft 16 kts 265°
2026-04-16 21:36 18.56491 -68.36102 50 ft 17 kts 265°
2026-04-16 21:37 18.56479 -68.36231 56 ft 18 kts 264°
2026-04-16 21:37 18.56468 -68.36380 54 ft 23 kts 266°
2026-04-16 21:37 18.56456 -68.36538 52 ft 18 kts 270°
2026-04-16 21:37 18.56507 -68.36653 54 ft 18 kts 304°
2026-04-16 21:38 18.56527 -68.36736 53 ft 18 kts 270°
2026-04-16 21:38 18.56517 -68.36872 54 ft 19 kts 265°
2026-04-16 21:38 18.56509 -68.36969 53 ft 8 kts 262°
2026-04-16 21:38 18.56472 -68.37011 53 ft 7 kts 202°
2026-04-16 21:39 18.56419 -68.37013 53 ft 9 kts 177°
2026-04-16 21:39 18.56380 -68.37008 51 ft 4 kts 166°
2026-04-16 21:39 18.56366 -68.36983 51 ft 4 kts 109°
2026-04-16 21:39 18.56365 -68.36946 53 ft 6 kts 87°
2026-04-16 21:40 18.56366 -68.36935 55 ft 2 kts 87°
2026-04-16 21:40 18.56367 -68.36920 56 ft 0 kts 87°
2026-04-16 21:40 18.56367 -68.36917 56 ft 0 kts 85°